Time,TemperatureF,DewpointF,PressureIn,WindDirection,WindDirectionDegrees,WindSpeedMPH,WindSpeedGustMPH,Humidity,HourlyPrecipIn,Conditions,Clouds,dailyrainin,SoftwareType,DateUTC
2013-08-15 00:00:00,54.0,53.2,29.94,North,351,1.0,3.5,97,0.00,CLR,OVC,0.00,WeatherDisplay:10.37,2013-08-15 04:00:00,
2013-08-15 00:01:00,54.0,53.2,29.94,North,351,1.3,2.3,97,0.00,CLR,OVC,0.00,WeatherDisplay:10.37,2013-08-15 04:01:00,
2013-08-15 00:06:00,53.9,53.1,29.94,North,351,1.6,2.3,97,0.00,CLR,OVC,0.00,WeatherDisplay:10.37,2013-08-15 04:06:00,
2013-08-15 00:11:00,53.8,53.0,29.94,North,351,1.9,3.0,97,0.00,CLR,OVC,0.00,WeatherDisplay:10.37,2013-08-15 04:11:00,
2013-08-15 00:12:00,53.8,53.0,29.94,North,351,2.7,3.5,97,0.00,CLR,OVC,0.00,WeatherDisplay:10.37,2013-08-15 04:12:00,
2013-08-15 00:16:00,53.8,53.0,29.94,North,351,2.7,3.5,97,0.00,CLR,OVC,0.00,WeatherDisplay:10.37,2013-08-15 04:16:00,
2013-08-15 00:17:00,53.8,53.0,29.94,North,351,2.9,3.5,97,0.00,CLR,OVC,0.00,WeatherDisplay:10.37,2013-08-15 04:17:00,
2013-08-15 00:21:00,53.6,52.8,29.94,North,351,2.1,3.5,97,0.00,CLR,OVC,0.00,WeatherDisplay:10.37,2013-08-15 04:21:00,
2013-08-15 00:22:00,53.4,52.6,29.94,North,351,2.3,3.5,97,0.00,CLR,OVC,0.00,WeatherDisplay:10.37,2013-08-15 04:22:00,
2013-08-15 00:23:00,53.4,52.6,29.94,North,351,1.3,3.5,97,0.00,CLR,OVC,0.00,WeatherDisplay:10.37,2013-08-15 04:23:00,
2013-08-15 00:26:00,53.3,52.8,29.94,North,351,0.0,0.0,98,0.00,CLR,OVC,0.00,WeatherDisplay:10.37,2013-08-15 04:26:00,
2013-08-15 00:27:00,53.4,52.8,29.94,North,351,0.8,3.0,98,0.00,CLR,OVC,0.00,WeatherDisplay:10.37,2013-08-15 04:27:00,
2013-08-15 00:28:00,53.4,52.8,29.94,North,351,2.2,3.5,98,0.00,CLR,OVC,0.00,WeatherDisplay:10.37,2013-08-15 04:28:00,
2013-08-15 00:31:00,53.5,52.9,29.94,North,351,1.6,3.5,98,0.00,CLR,OVC,0.00,WeatherDisplay:10.37,2013-08-15 04:31:00,
2013-08-15 00:32:00,53.5,52.9,29.94,North,351,0.9,3.5,98,0.00,CLR,OVC,0.00,WeatherDisplay:10.37,2013-08-15 04:32:00,
2013-08-15 00:33:00,53.5,52.9,29.94,North,351,0.0,1.2,98,0.00,CLR,OVC,0.00,WeatherDisplay:10.37,2013-08-15 04:33:00,
2013-08-15 00:36:00,53.5,52.9,29.94,North,351,0.2,1.2,98,0.00,CLR,OVC,0.00,WeatherDisplay:10.37,2013-08-15 04:36:00,
2013-08-15 00:37:00,53.5,52.9,29.94,North,351,0.2,1.2,98,0.00,CLR,OVC,0.00,WeatherDisplay:10.37,2013-08-15 04:37:00,
2013-08-15 00:39:00,53.5,52.9,29.94,North,351,0.0,0.0,98,0.00,CLR,OVC,0.00,WeatherDisplay:10.37,2013-08-15 04:39:00,
2013-08-15 00:42:00,53.5,52.9,29.94,North,351,0.6,2.3,98,0.00,CLR,OVC,0.00,WeatherDisplay:10.37,2013-08-15 04:42:00,
2013-08-15 00:43:00,53.5,52.9,29.95,North,351,0.0,1.2,98,0.00,CLR,OVC,0.00,WeatherDisplay:10.37,2013-08-15 04:43:00,
2013-08-15 00:44:00,53.5,52.9,29.94,North,351,0.3,2.0,98,0.00,CLR,OVC,0.00,WeatherDisplay:10.37,2013-08-15 04:44:00,
2013-08-15 00:47:00,53.5,52.9,29.94,North,351,1.1,2.3,98,0.00,CLR,OVC,0.00,WeatherDisplay:10.37,2013-08-15 04:47:00,
2013-08-15 00:48:00,53.5,52.9,29.94,North,351,0.6,2.3,98,0.00,CLR,OVC,0.00,WeatherDisplay:10.37,2013-08-15 04:48:00,
2013-08-15 00:49:00,53.4,52.8,29.94,North,351,0.6,3.0,98,0.00,CLR,OVC,0.00,WeatherDisplay:10.37,2013-08-15 04:49:00,
2013-08-15 00:52:00,53.3,52.8,29.94,North,351,0.0,0.0,98,0.00,CLR,OVC,0.00,WeatherDisplay:10.37,2013-08-15 04:52:00,
2013-08-15 00:53:00,53.3,52.8,29.94,North,351,0.0,0.0,98,0.00,CLR,OVC,0.00,WeatherDisplay:10.37,2013-08-15 04:53:00,
2013-08-15 00:54:00,53.3,52.8,29.94,North,351,0.0,0.0,98,0.00,CLR,OVC,0.00,WeatherDisplay:10.37,2013-08-15 04:54:00,
2013-08-15 00:57:00,53.3,52.8,29.94,North,351,0.0,2.3,98,0.00,CLR,OVC,0.00,WeatherDisplay:10.37,2013-08-15 04:57:00,
2013-08-15 00:58:00,53.3,52.8,29.94,North,351,0.0,0.0,98,0.00,CLR,OVC,0.00,WeatherDisplay:10.37,2013-08-15 04:58:00,
2013-08-15 00:59:00,53.3,52.8,29.94,North,351,4.0,4.6,98,0.00,CLR,OVC,0.00,WeatherDisplay:10.37,2013-08-15 04:59:00,
2013-08-15 01:02:00,53.4,52.8,29.94,North,351,0.2,2.3,98,0.00,CLR,OVC,0.00,WeatherDisplay:10.37,2013-08-15 05:02:00,
2013-08-15 01:03:00,53.4,52.8,29.94,North,351,0.0,1.2,98,0.00,CLR,OVC,0.00,WeatherDisplay:10.37,2013-08-15 05:03:00,
2013-08-15 01:05:00,53.4,52.8,29.94,North,351,0.6,2.3,98,0.00,CLR,OVC,0.00,WeatherDisplay:10.37,2013-08-15 05:05:00,
2013-08-15 01:07:00,53.4,52.8,29.94,North,351,0.0,0.0,98,0.00,CLR,OVC,0.00,WeatherDisplay:10.37,2013-08-15 05:07:00,
2013-08-15 01:08:00,53.4,52.8,29.94,North,351,0.0,0.0,98,0.00,CLR,OVC,0.00,WeatherDisplay:10.37,2013-08-15 05:08:00,
2013-08-15 01:09:00,53.4,52.8,29.94,North,351,0.0,0.0,98,0.00,CLR,OVC,0.00,WeatherDisplay:10.37,2013-08-15 05:09:00,
2013-08-15 01:10:00,53.4,52.8,29.94,North,351,0.1,0.0,98,0.00,CLR,OVC,0.00,WeatherDisplay:10.37,2013-08-15 05:10:00,
2013-08-15 01:13:00,53.4,52.8,29.94,North,351,1.2,2.3,98,0.00,CLR,OVC,0.00,WeatherDisplay:10.37,2013-08-15 05:13:00,
2013-08-15 01:14:00,53.4,52.8,29.94,North,351,0.1,2.3,98,0.00,CLR,OVC,0.00,WeatherDisplay:10.37,2013-08-15 05:14:00,
2013-08-15 01:15:00,53.5,52.9,29.94,North,351,1.1,2.0,98,0.00,CLR,OVC,0.00,WeatherDisplay:10.37,2013-08-15 05:15:00,
2013-08-15 01:18:00,53.4,52.8,29.94,North,351,3.6,4.0,98,0.00,CLR,OVC,0.00,WeatherDisplay:10.37,2013-08-15 05:18:00,
2013-08-15 01:19:00,53.5,52.9,29.94,North,351,3.9,4.6,98,0.00,CLR,OVC,0.00,WeatherDisplay:10.37,2013-08-15 05:19:00,
2013-08-15 01:20:00,53.5,52.9,29.94,North,351,1.1,4.6,98,0.00,CLR,OVC,0.00,WeatherDisplay:10.37,2013-08-15 05:20:00,
2013-08-15 01:23:00,53.2,52.7,29.94,ENE,62,3.0,5.8,98,0.00,CLR,OVC,0.00,WeatherDisplay:10.37,2013-08-15 05:23:00,
2013-08-15 01:24:00,53.2,52.7,29.94,ENE,61,1.3,4.6,98,0.00,CLR,OVC,0.00,WeatherDisplay:10.37,2013-08-15 05:24:00,
2013-08-15 01:25:00,53.1,52.6,29.94,ENE,61,1.7,3.5,98,0.00,CLR,OVC,0.00,WeatherDisplay:10.37,2013-08-15 05:25:00,
2013-08-15 01:28:00,53.2,52.7,29.94,ENE,61,0.1,2.3,98,0.00,CLR,OVC,0.00,WeatherDisplay:10.37,2013-08-15 05:28:00,
2013-08-15 01:29:00,53.2,52.7,29.94,ENE,62,0.0,1.2,98,0.00,CLR,OVC,0.00,WeatherDisplay:10.37,2013-08-15 05:29:00,
2013-08-15 01:30:00,53.3,52.8,29.94,ENE,62,1.5,2.0,98,0.00,CLR,OVC,0.00,WeatherDisplay:10.37,2013-08-15 05:30:00,
2013-08-15 01:33:00,53.3,52.8,29.95,ENE,62,1.4,2.0,98,0.00,CLR,OVC,0.00,WeatherDisplay:10.37,2013-08-15 05:33:00,
2013-08-15 01:34:00,53.4,53.1,29.94,ENE,62,1.7,3.5,99,0.00,CLR,OVC,0.00,WeatherDisplay:10.37,2013-08-15 05:34:00,
2013-08-15 01:36:00,53.4,52.8,29.94,ENE,61,2.8,3.5,98,0.00,CLR,OVC,0.00,WeatherDisplay:10.37,2013-08-15 05:36:00,
2013-08-15 01:38:00,53.3,52.8,29.94,ENE,61,1.6,3.5,98,0.00,CLR,OVC,0.00,WeatherDisplay:10.37,2013-08-15 05:38:00,
2013-08-15 01:39:00,53.3,52.8,29.94,ENE,62,1.9,3.5,98,0.00,CLR,OVC,0.00,WeatherDisplay:10.37,2013-08-15 05:39:00,
2013-08-15 01:40:00,53.2,52.7,29.95,ENE,61,1.5,3.5,98,0.00,CLR,OVC,0.00,WeatherDisplay:10.37,2013-08-15 05:40:00,
2013-08-15 01:41:00,53.2,52.7,29.94,ENE,62,0.5,2.3,98,0.00,CLR,OVC,0.00,WeatherDisplay:10.37,2013-08-15 05:41:00,
2013-08-15 01:44:00,53.1,52.6,29.94,ENE,61,0.9,3.5,98,0.00,CLR,OVC,0.00,WeatherDisplay:10.37,2013-08-15 05:44:00,
2013-08-15 01:45:00,53.1,52.6,29.94,ENE,62,0.1,1.2,98,0.00,CLR,OVC,0.00,WeatherDisplay:10.37,2013-08-15 05:45:00,
2013-08-15 01:46:00,53.0,52.5,29.94,ENE,61,0.0,0.0,98,0.00,CLR,OVC,0.00,WeatherDisplay:10.37,2013-08-15 05:46:00,
2013-08-15 01:49:00,52.9,52.4,29.95,ENE,61,0.0,0.0,98,0.00,CLR,OVC,0.00,WeatherDisplay:10.37,2013-08-15 05:49:00,
2013-08-15 01:50:00,52.9,52.4,29.94,ENE,62,0.0,0.0,98,0.00,CLR,OVC,0.00,WeatherDisplay:10.37,2013-08-15 05:50:00,
2013-08-15 01:51:00,52.9,52.4,29.94,ENE,62,0.3,4.0,98,0.00,CLR,OVC,0.00,WeatherDisplay:10.37,2013-08-15 05:51:00,
2013-08-15 01:54:00,52.8,52.3,29.95,ENE,62,2.5,3.5,98,0.00,CLR,OVC,0.00,WeatherDisplay:10.37,2013-08-15 05:54:00,
2013-08-15 01:55:00,52.8,52.3,29.94,ENE,62,2.6,3.5,98,0.00,CLR,OVC,0.00,WeatherDisplay:10.37,2013-08-15 05:55:00,
2013-08-15 01:57:00,52.8,52.3,29.94,ENE,61,1.2,2.3,98,0.00,CLR,OVC,0.00,WeatherDisplay:10.37,2013-08-15 05:57:00,
2013-08-15 01:59:00,52.8,52.3,29.95,ENE,62,1.6,2.3,98,0.00,CLR,OVC,0.00,WeatherDisplay:10.37,2013-08-15 05:59:00,
2013-08-15 02:00:00,52.7,52.2,29.94,ENE,61,2.0,3.0,98,0.00,CLR,OVC,0.00,WeatherDisplay:10.37,2013-08-15 06:00:00,
2013-08-15 02:02:00,52.7,52.2,29.95,ENE,62,2.7,3.5,98,0.00,CLR,OVC,0.00,WeatherDisplay:10.37,2013-08-15 06:02:00,
2013-08-15 02:04:00,52.7,52.2,29.95,ENE,62,2.4,3.5,98,0.00,CLR,OVC,0.00,WeatherDisplay:10.37,2013-08-15 06:04:00,
2013-08-15 02:05:00,52.7,52.2,29.95,ENE,61,2.6,3.5,98,0.00,CLR,OVC,0.00,WeatherDisplay:10.37,2013-08-15 06:05:00,
2013-08-15 02:06:00,52.7,52.4,29.95,ENE,61,2.4,3.5,99,0.00,CLR,OVC,0.00,WeatherDisplay:10.37,2013-08-15 06:06:00,
2013-08-15 02:07:00,52.6,52.1,29.95,ENE,61,1.5,3.5,98,0.00,CLR,OVC,0.00,WeatherDisplay:10.37,2013-08-15 06:07:00,
2013-08-15 02:09:00,52.1,51.6,29.95,SSW,210,3.8,8.1,98,0.00,CLR,OVC,0.00,WeatherDisplay:10.37,2013-08-15 06:09:00,
2013-08-15 02:10:00,52.1,51.6,29.95,SSW,209,4.0,5.8,98,0.00,CLR,OVC,0.00,WeatherDisplay:10.37,2013-08-15 06:10:00,
2013-08-15 02:11:00,52.0,51.5,29.95,SSW,210,2.9,5.8,98,0.00,CLR,OVC,0.00,WeatherDisplay:10.37,2013-08-15 06:11:00,
2013-08-15 02:12:00,51.9,51.4,29.95,SSW,209,2.0,3.5,98,0.00,CLR,OVC,0.00,WeatherDisplay:10.37,2013-08-15 06:12:00,
2013-08-15 02:14:00,51.8,51.3,29.95,SSW,210,0.9,2.3,98,0.00,CLR,OVC,0.00,WeatherDisplay:10.37,2013-08-15 06:14:00,
2013-08-15 02:15:00,51.8,51.3,29.95,SSW,210,1.2,2.3,98,0.00,CLR,OVC,0.00,WeatherDisplay:10.37,2013-08-15 06:15:00,
2013-08-15 02:17:00,51.8,51.3,29.95,SSW,210,1.6,2.3,98,0.00,CLR,OVC,0.00,WeatherDisplay:10.37,2013-08-15 06:17:00,
2013-08-15 02:19:00,51.8,51.3,29.95,SSW,210,1.0,2.0,98,0.00,CLR,OVC,0.00,WeatherDisplay:10.37,2013-08-15 06:19:00,
2013-08-15 02:20:00,51.7,51.2,29.95,SSW,210,1.7,2.3,98,0.00,CLR,OVC,0.00,WeatherDisplay:10.37,2013-08-15 06:20:00,
2013-08-15 02:21:00,51.6,51.1,29.95,SSW,210,1.5,2.3,98,0.00,CLR,OVC,0.00,WeatherDisplay:10.37,2013-08-15 06:21:00,
2013-08-15 02:22:00,51.8,51.3,29.95,SSW,210,1.6,2.3,98,0.00,CLR,OVC,0.00,WeatherDisplay:10.37,2013-08-15 06:22:00,
2013-08-15 02:24:00,51.9,51.6,29.95,SSW,209,0.4,1.2,99,0.00,CLR,OVC,0.00,WeatherDisplay:10.37,2013-08-15 06:24:00,
2013-08-15 02:25:00,51.9,51.6,29.95,SSW,210,0.1,1.2,99,0.00,CLR,OVC,0.00,WeatherDisplay:10.37,2013-08-15 06:25:00,
2013-08-15 02:26:00,51.9,51.4,29.95,SSW,210,0.0,1.2,98,0.00,CLR,OVC,0.00,WeatherDisplay:10.37,2013-08-15 06:26:00,
2013-08-15 02:27:00,52.0,51.7,29.95,SSW,210,1.5,3.5,99,0.00,CLR,OVC,0.00,WeatherDisplay:10.37,2013-08-15 06:27:00,
2013-08-15 02:28:00,52.0,51.7,29.95,SSW,210,2.0,3.5,99,0.00,CLR,OVC,0.00,WeatherDisplay:10.37,2013-08-15 06:28:00,
2013-08-15 02:30:00,52.1,51.8,29.95,SSW,210,1.6,3.5,99,0.00,CLR,OVC,0.00,WeatherDisplay:10.37,2013-08-15 06:30:00,
2013-08-15 02:31:00,52.2,51.9,29.95,SSW,210,0.5,3.5,99,0.00,CLR,OVC,0.00,WeatherDisplay:10.37,2013-08-15 06:31:00,
2013-08-15 02:32:00,52.0,51.5,29.95,SSW,210,0.4,2.3,98,0.00,CLR,OVC,0.00,WeatherDisplay:10.37,2013-08-15 06:32:00,
2013-08-15 02:33:00,52.0,51.7,29.95,SSW,210,0.4,2.3,99,0.00,CLR,OVC,0.00,WeatherDisplay:10.37,2013-08-15 06:33:00,
2013-08-15 02:35:00,51.8,51.3,29.95,SSW,210,0.1,0.0,98,0.00,CLR,OVC,0.00,WeatherDisplay:10.37,2013-08-15 06:35:00,
2013-08-15 02:36:00,51.8,51.3,29.95,SSW,210,0.1,1.2,98,0.00,CLR,OVC,0.00,WeatherDisplay:10.37,2013-08-15 06:36:00,
2013-08-15 02:38:00,51.8,51.5,29.95,SSW,210,0.0,0.0,99,0.00,CLR,OVC,0.00,WeatherDisplay:10.37,2013-08-15 06:38:00,
2013-08-15 02:40:00,51.8,51.5,29.95,SSW,210,0.0,0.0,99,0.00,CLR,OVC,0.00,WeatherDisplay:10.37,2013-08-15 06:40:00,
2013-08-15 02:41:00,51.7,51.4,29.96,SSW,210,0.0,0.0,99,0.00,CLR,OVC,0.00,WeatherDisplay:10.37,2013-08-15 06:41:00,
2013-08-15 02:43:00,51.8,51.3,29.95,SSW,210,2.4,3.5,98,0.00,CLR,OVC,0.00,WeatherDisplay:10.37,2013-08-15 06:43:00,
2013-08-15 02:44:00,51.8,51.5,29.95,SSW,210,2.5,3.5,99,0.00,CLR,OVC,0.00,WeatherDisplay:10.37,2013-08-15 06:44:00,
2013-08-15 02:45:00,51.8,51.5,29.95,SSW,210,0.5,2.3,99,0.00,CLR,OVC,0.00,WeatherDisplay:10.37,2013-08-15 06:45:00,
2013-08-15 02:46:00,51.8,51.5,29.95,SSW,210,0.1,2.3,99,0.00,CLR,OVC,0.00,WeatherDisplay:10.37,2013-08-15 06:46:00,
2013-08-15 02:48:00,51.8,51.5,29.95,SSW,210,0.0,0.0,99,0.00,CLR,OVC,0.00,WeatherDisplay:10.37,2013-08-15 06:48:00,
2013-08-15 02:49:00,51.8,51.5,29.95,SSW,210,0.0,0.0,99,0.00,CLR,OVC,0.00,WeatherDisplay:10.37,2013-08-15 06:49:00,
2013-08-15 02:51:00,51.8,51.5,29.96,SSW,210,0.0,0.0,99,0.00,CLR,OVC,0.00,WeatherDisplay:10.37,2013-08-15 06:51:00,
2013-08-15 02:53:00,51.8,51.5,29.95,SSW,210,0.0,0.0,99,0.00,CLR,OVC,0.00,WeatherDisplay:10.37,2013-08-15 06:53:00,
2013-08-15 02:54:00,51.8,51.5,29.96,SSW,210,0.0,0.0,99,0.00,CLR,OVC,0.00,WeatherDisplay:10.37,2013-08-15 06:54:00,
2013-08-15 02:56:00,51.8,51.3,29.96,SSW,210,0.0,0.0,98,0.00,CLR,OVC,0.00,WeatherDisplay:10.37,2013-08-15 06:56:00,
2013-08-15 02:58:00,51.8,51.5,29.96,South,188,5.1,6.0,99,0.00,CLR,OVC,0.00,WeatherDisplay:10.37,2013-08-15 06:58:00,
2013-08-15 03:00:00,51.8,51.5,29.96,South,180,5.5,5.8,99,0.00,CLR,OVC,0.00,WeatherDisplay:10.37,2013-08-15 07:00:00,
2013-08-15 03:01:00,51.8,51.5,29.96,South,179,2.6,5.8,99,0.00,CLR,OVC,0.00,WeatherDisplay:10.37,2013-08-15 07:01:00,
2013-08-15 03:04:00,51.6,51.1,29.96,South,180,1.4,3.5,98,0.00,CLR,OVC,0.00,WeatherDisplay:10.37,2013-08-15 07:04:00,
2013-08-15 03:05:00,51.6,51.3,29.96,South,180,0.8,2.3,99,0.00,CLR,OVC,0.00,WeatherDisplay:10.37,2013-08-15 07:05:00,
2013-08-15 03:06:00,51.6,51.3,29.96,South,179,0.0,2.3,99,0.00,CLR,OVC,0.00,WeatherDisplay:10.37,2013-08-15 07:06:00,
2013-08-15 03:07:00,51.6,51.3,29.96,South,179,0.0,0.0,99,0.00,CLR,OVC,0.00,WeatherDisplay:10.37,2013-08-15 07:07:00,
2013-08-15 03:09:00,51.6,51.3,29.96,South,179,0.7,1.2,99,0.00,CLR,OVC,0.00,WeatherDisplay:10.37,2013-08-15 07:09:00,
2013-08-15 03:10:00,51.6,51.3,29.96,South,179,1.5,3.0,99,0.00,CLR,OVC,0.00,WeatherDisplay:10.37,2013-08-15 07:10:00,
2013-08-15 03:11:00,51.5,51.2,29.96,South,180,2.6,3.5,99,0.00,CLR,OVC,0.00,WeatherDisplay:10.37,2013-08-15 07:11:00,
2013-08-15 03:12:00,51.5,51.2,29.96,South,180,1.8,3.5,99,0.00,CLR,OVC,0.00,WeatherDisplay:10.37,2013-08-15 07:12:00,
2013-08-15 03:13:00,51.5,51.2,29.96,South,180,1.3,3.5,99,0.00,CLR,OVC,0.00,WeatherDisplay:10.37,2013-08-15 07:13:00,
2013-08-15 03:14:00,51.4,51.1,29.96,South,180,1.6,3.0,99,0.00,CLR,OVC,0.00,WeatherDisplay:10.37,2013-08-15 07:14:00,
2013-08-15 03:15:00,51.4,50.9,29.96,South,180,2.7,3.5,98,0.00,CLR,OVC,0.00,WeatherDisplay:10.37,2013-08-15 07:15:00,
2013-08-15 03:17:00,51.4,51.1,29.96,South,180,2.2,3.5,99,0.00,CLR,OVC,0.00,WeatherDisplay:10.37,2013-08-15 07:17:00,
2013-08-15 03:18:00,51.3,51.0,29.96,South,180,0.9,2.3,99,0.00,CLR,OVC,0.00,WeatherDisplay:10.37,2013-08-15 07:18:00,
2013-08-15 03:19:00,51.3,51.0,29.96,South,180,0.5,2.3,99,0.00,CLR,OVC,0.00,WeatherDisplay:10.37,2013-08-15 07:19:00,
2013-08-15 03:21:00,51.3,50.8,29.96,South,179,0.9,2.3,98,0.00,CLR,OVC,0.00,WeatherDisplay:10.37,2013-08-15 07:21:00,
2013-08-15 03:22:00,51.2,50.9,29.96,South,180,1.9,2.3,99,0.00,CLR,OVC,0.00,WeatherDisplay:10.37,2013-08-15 07:22:00,
2013-08-15 03:23:00,51.2,50.7,29.96,South,180,1.1,3.5,98,0.00,CLR,OVC,0.00,WeatherDisplay:10.37,2013-08-15 07:23:00,
2013-08-15 03:24:00,51.2,50.9,29.96,South,179,0.3,1.2,99,0.00,CLR,OVC,0.00,WeatherDisplay:10.37,2013-08-15 07:24:00,
2013-08-15 03:26:00,51.2,50.9,29.96,South,179,0.0,0.0,99,0.00,CLR,OVC,0.00,WeatherDisplay:10.37,2013-08-15 07:26:00,
2013-08-15 03:27:00,51.1,50.8,29.96,South,180,0.0,0.0,99,0.00,CLR,OVC,0.00,WeatherDisplay:10.37,2013-08-15 07:27:00,
2013-08-15 03:28:00,51.1,50.8,29.96,South,180,0.0,0.0,99,0.00,CLR,OVC,0.00,WeatherDisplay:10.37,2013-08-15 07:28:00,
2013-08-15 03:30:00,51.1,50.8,29.96,South,179,0.0,0.0,99,0.00,CLR,OVC,0.00,WeatherDisplay:10.37,2013-08-15 07:30:00,
2013-08-15 03:32:00,51.1,50.8,29.96,South,179,0.3,2.3,99,0.00,CLR,OVC,0.00,WeatherDisplay:10.37,2013-08-15 07:32:00,
2013-08-15 03:33:00,51.1,50.8,29.96,South,179,2.9,3.5,99,0.00,CLR,OVC,0.00,WeatherDisplay:10.37,2013-08-15 07:33:00,
2013-08-15 03:34:00,51.1,50.8,29.96,South,180,1.2,3.5,99,0.00,CLR,OVC,0.00,WeatherDisplay:10.37,2013-08-15 07:34:00,
2013-08-15 03:35:00,51.0,50.7,29.96,South,180,0.3,2.3,99,0.00,CLR,OVC,0.00,WeatherDisplay:10.37,2013-08-15 07:35:00,
2013-08-15 03:37:00,51.0,50.7,29.96,South,179,0.6,1.2,99,0.00,CLR,OVC,0.00,WeatherDisplay:10.37,2013-08-15 07:37:00,
2013-08-15 03:38:00,51.0,50.7,29.96,South,179,0.1,1.2,99,0.00,CLR,OVC,0.00,WeatherDisplay:10.37,2013-08-15 07:38:00,
2013-08-15 03:39:00,51.0,50.7,29.96,South,180,0.0,1.2,99,0.00,CLR,OVC,0.00,WeatherDisplay:10.37,2013-08-15 07:39:00,
2013-08-15 03:40:00,51.1,50.8,29.96,South,180,2.2,3.5,99,0.00,CLR,OVC,0.00,WeatherDisplay:10.37,2013-08-15 07:40:00,
2013-08-15 03:43:00,51.2,50.9,29.96,South,180,0.3,2.3,99,0.00,CLR,OVC,0.00,WeatherDisplay:10.37,2013-08-15 07:43:00,
2013-08-15 03:44:00,51.2,50.9,29.96,South,179,0.3,1.2,99,0.00,CLR,OVC,0.00,WeatherDisplay:10.37,2013-08-15 07:44:00,
2013-08-15 03:45:00,51.2,50.9,29.96,South,180,0.9,1.2,99,0.00,CLR,OVC,0.00,WeatherDisplay:10.37,2013-08-15 07:45:00,
2013-08-15 03:48:00,51.0,50.7,29.96,South,180,2.0,3.5,99,0.00,CLR,OVC,0.00,WeatherDisplay:10.37,2013-08-15 07:48:00,
2013-08-15 03:49:00,51.2,50.9,29.96,South,180,2.5,3.5,99,0.00,CLR,OVC,0.00,WeatherDisplay:10.37,2013-08-15 07:49:00,
2013-08-15 03:50:00,51.3,51.0,29.96,South,179,2.7,3.5,99,0.00,CLR,OVC,0.00,WeatherDisplay:10.37,2013-08-15 07:50:00,
2013-08-15 03:53:00,51.3,51.0,29.96,South,180,0.5,2.3,99,0.00,CLR,OVC,0.00,WeatherDisplay:10.37,2013-08-15 07:53:00,
2013-08-15 03:55:00,51.5,51.2,29.96,South,179,0.0,0.0,99,0.00,CLR,OVC,0.00,WeatherDisplay:10.37,2013-08-15 07:55:00,
2013-08-15 03:58:00,51.5,51.2,29.96,South,180,2.7,3.5,99,0.00,CLR,OVC,0.00,WeatherDisplay:10.37,2013-08-15 07:58:00,
2013-08-15 04:00:00,51.5,51.2,29.96,South,179,2.2,3.5,99,0.00,CLR,OVC,0.00,WeatherDisplay:10.37,2013-08-15 08:00:00,
2013-08-15 04:01:00,51.5,51.2,29.96,South,180,1.9,3.5,99,0.00,CLR,OVC,0.00,WeatherDisplay:10.37,2013-08-15 08:01:00,
2013-08-15 04:03:00,51.6,51.3,29.97,South,180,0.0,0.0,99,0.00,CLR,OVC,0.00,WeatherDisplay:10.37,2013-08-15 08:03:00,
2013-08-15 04:05:00,51.5,51.2,29.97,South,179,0.0,0.0,99,0.00,CLR,OVC,0.00,WeatherDisplay:10.37,2013-08-15 08:05:00,
2013-08-15 04:06:00,51.6,51.6,29.97,South,179,0.0,0.0,100,0.00,CLR,OVC,0.00,WeatherDisplay:10.37,2013-08-15 08:06:00,
2013-08-15 04:08:00,51.6,51.3,29.96,South,180,2.9,3.5,99,0.00,CLR,OVC,0.00,WeatherDisplay:10.37,2013-08-15 08:08:00,
2013-08-15 04:10:00,51.6,51.3,29.96,South,179,2.4,3.5,99,0.00,CLR,OVC,0.00,WeatherDisplay:10.37,2013-08-15 08:10:00,
2013-08-15 04:11:00,51.6,51.3,29.96,South,180,0.2,2.3,99,0.00,CLR,OVC,0.00,WeatherDisplay:10.37,2013-08-15 08:11:00,
2013-08-15 04:13:00,51.5,51.2,29.96,South,180,1.0,2.3,99,0.00,CLR,OVC,0.00,WeatherDisplay:10.37,2013-08-15 08:13:00,
2013-08-15 04:15:00,51.5,51.2,29.97,South,179,2.1,3.5,99,0.00,CLR,OVC,0.00,WeatherDisplay:10.37,2013-08-15 08:15:00,
2013-08-15 04:16:00,51.5,51.2,29.96,South,179,2.2,3.5,99,0.00,CLR,OVC,0.00,WeatherDisplay:10.37,2013-08-15 08:16:00,
2013-08-15 04:18:00,51.3,51.0,29.96,South,179,1.9,3.5,99,0.00,CLR,OVC,0.00,WeatherDisplay:10.37,2013-08-15 08:18:00,
2013-08-15 04:19:00,51.4,51.1,29.97,South,179,1.0,3.5,99,0.00,CLR,OVC,0.00,WeatherDisplay:10.37,2013-08-15 08:19:00,
2013-08-15 04:20:00,51.4,51.1,29.96,South,180,0.9,3.5,99,0.00,CLR,OVC,0.00,WeatherDisplay:10.37,2013-08-15 08:20:00,
2013-08-15 04:21:00,51.4,51.1,29.96,South,179,2.1,3.5,99,0.00,CLR,OVC,0.00,WeatherDisplay:10.37,2013-08-15 08:21:00,
2013-08-15 04:24:00,51.4,51.1,29.96,South,180,0.0,0.0,99,0.00,CLR,OVC,0.00,WeatherDisplay:10.37,2013-08-15 08:24:00,
2013-08-15 04:25:00,51.4,51.4,29.97,South,180,0.0,0.0,100,0.00,CLR,OVC,0.00,WeatherDisplay:10.37,2013-08-15 08:25:00,
2013-08-15 04:26:00,51.4,51.4,29.97,South,179,0.0,0.0,100,0.00,CLR,OVC,0.00,WeatherDisplay:10.37,2013-08-15 08:26:00,
2013-08-15 04:29:00,51.5,51.2,29.96,South,180,0.2,2.0,99,0.00,CLR,OVC,0.00,WeatherDisplay:10.37,2013-08-15 08:29:00,
2013-08-15 04:30:00,51.5,51.2,29.96,South,179,1.9,3.0,99,0.00,CLR,OVC,0.00,WeatherDisplay:10.37,2013-08-15 08:30:00,
2013-08-15 04:31:00,51.5,51.2,29.96,South,179,1.1,3.5,99,0.00,CLR,OVC,0.00,WeatherDisplay:10.37,2013-08-15 08:31:00,
2013-08-15 04:32:00,51.5,51.2,29.96,South,180,0.8,3.5,99,0.00,CLR,OVC,0.00,WeatherDisplay:10.37,2013-08-15 08:32:00,
2013-08-15 04:34:00,51.5,51.2,29.96,South,180,0.0,0.0,99,0.00,CLR,OVC,0.00,WeatherDisplay:10.37,2013-08-15 08:34:00,
2013-08-15 04:35:00,51.6,51.3,29.97,South,179,0.4,2.0,99,0.00,CLR,OVC,0.00,WeatherDisplay:10.37,2013-08-15 08:35:00,
2013-08-15 04:36:00,51.6,51.6,29.96,South,179,1.2,3.5,100,0.00,CLR,OVC,0.00,WeatherDisplay:10.37,2013-08-15 08:36:00,
2013-08-15 04:37:00,51.6,51.6,29.96,South,179,1.1,3.5,100,0.00,CLR,OVC,0.00,WeatherDisplay:10.37,2013-08-15 08:37:00,
2013-08-15 04:39:00,51.5,51.5,29.96,South,180,1.8,3.5,100,0.00,CLR,OVC,0.00,WeatherDisplay:10.37,2013-08-15 08:39:00,
2013-08-15 04:40:00,51.5,51.2,29.96,South,180,1.7,3.5,99,0.00,CLR,OVC,0.00,WeatherDisplay:10.37,2013-08-15 08:40:00,
2013-08-15 04:41:00,51.4,51.1,29.97,South,179,0.6,2.3,99,0.00,CLR,OVC,0.00,WeatherDisplay:10.37,2013-08-15 08:41:00,
2013-08-15 04:42:00,51.4,51.1,29.97,South,180,0.1,1.0,99,0.00,CLR,OVC,0.00,WeatherDisplay:10.37,2013-08-15 08:42:00,
2013-08-15 04:45:00,51.3,51.0,29.97,South,179,0.2,1.2,99,0.00,CLR,OVC,0.00,WeatherDisplay:10.37,2013-08-15 08:45:00,
2013-08-15 04:46:00,51.3,51.0,29.97,South,179,1.8,3.5,99,0.00,CLR,OVC,0.00,WeatherDisplay:10.37,2013-08-15 08:46:00,
2013-08-15 04:47:00,51.3,51.0,29.97,South,179,3.4,4.0,99,0.00,CLR,OVC,0.00,WeatherDisplay:10.37,2013-08-15 08:47:00,
2013-08-15 04:50:00,51.3,51.0,29.97,South,180,0.5,2.3,99,0.00,CLR,OVC,0.00,WeatherDisplay:10.37,2013-08-15 08:50:00,
2013-08-15 04:51:00,51.3,51.0,29.97,South,180,2.0,4.0,99,0.00,CLR,OVC,0.00,WeatherDisplay:10.37,2013-08-15 08:51:00,
2013-08-15 04:52:00,51.2,50.9,29.97,South,179,2.8,3.5,99,0.00,CLR,OVC,0.00,WeatherDisplay:10.37,2013-08-15 08:52:00,
2013-08-15 04:55:00,51.0,50.7,29.97,South,180,4.3,5.0,99,0.00,CLR,OVC,0.00,WeatherDisplay:10.37,2013-08-15 08:55:00,
2013-08-15 04:56:00,50.9,50.6,29.97,South,180,4.2,5.0,99,0.00,CLR,OVC,0.00,WeatherDisplay:10.37,2013-08-15 08:56:00,
2013-08-15 04:57:00,50.9,50.6,29.97,South,180,2.5,4.6,99,0.00,CLR,OVC,0.00,WeatherDisplay:10.37,2013-08-15 08:57:00,
2013-08-15 04:58:00,50.9,50.6,29.97,South,180,2.0,3.5,99,0.00,CLR,OVC,0.00,WeatherDisplay:10.37,2013-08-15 08:58:00,
2013-08-15 05:00:00,50.7,50.7,29.97,South,180,1.6,3.5,100,0.00,CLR,OVC,0.00,WeatherDisplay:10.37,2013-08-15 09:00:00,
2013-08-15 05:02:00,50.8,50.5,29.98,South,180,1.6,3.5,99,0.00,CLR,OVC,0.00,WeatherDisplay:10.37,2013-08-15 09:02:00,
2013-08-15 05:03:00,51.0,50.7,29.98,South,180,1.7,3.5,99,0.00,CLR,OVC,0.00,WeatherDisplay:10.37,2013-08-15 09:03:00,
2013-08-15 05:05:00,51.0,51.0,29.97,South,179,1.0,2.3,100,0.00,CLR,OVC,0.00,WeatherDisplay:10.37,2013-08-15 09:05:00,
2013-08-15 05:06:00,51.1,50.8,29.98,South,179,1.4,2.3,99,0.00,CLR,OVC,0.00,WeatherDisplay:10.37,2013-08-15 09:06:00,
2013-08-15 05:07:00,51.1,50.8,29.97,South,180,1.0,2.3,99,0.00,CLR,OVC,0.00,WeatherDisplay:10.37,2013-08-15 09:07:00,
2013-08-15 05:09:00,51.2,51.2,29.97,South,180,1.4,2.3,100,0.00,CLR,OVC,0.00,WeatherDisplay:10.37,2013-08-15 09:09:00,
2013-08-15 05:11:00,51.2,51.2,29.97,South,179,1.1,2.3,100,0.00,CLR,OVC,0.00,WeatherDisplay:10.37,2013-08-15 09:11:00,
2013-08-15 05:12:00,51.3,51.0,29.97,South,180,0.2,2.3,99,0.00,CLR,OVC,0.00,WeatherDisplay:10.37,2013-08-15 09:12:00,
2013-08-15 05:14:00,51.4,51.4,29.97,South,180,0.0,1.0,100,0.00,CLR,OVC,0.00,WeatherDisplay:10.37,2013-08-15 09:14:00,
2013-08-15 05:16:00,51.5,51.5,29.97,South,180,2.7,5.0,100,0.00,CLR,OVC,0.00,WeatherDisplay:10.37,2013-08-15 09:16:00,
2013-08-15 05:17:00,51.5,51.5,29.98,South,179,3.9,5.8,100,0.00,CLR,OVC,0.00,WeatherDisplay:10.37,2013-08-15 09:17:00,
2013-08-15 05:18:00,51.6,51.6,29.97,South,179,2.4,3.5,100,0.00,CLR,OVC,0.00,WeatherDisplay:10.37,2013-08-15 09:18:00,
2013-08-15 05:19:00,51.7,51.7,29.97,South,179,1.5,3.5,100,0.00,CLR,OVC,0.00,WeatherDisplay:10.37,2013-08-15 09:19:00,
2013-08-15 05:21:00,51.8,51.8,29.98,South,179,1.4,3.5,100,0.00,CLR,OVC,0.00,WeatherDisplay:10.37,2013-08-15 09:21:00,
2013-08-15 05:22:00,51.9,51.9,29.98,South,179,1.7,3.0,100,0.00,CLR,OVC,0.00,WeatherDisplay:10.37,2013-08-15 09:22:00,
2013-08-15 05:23:00,51.9,51.9,29.98,South,180,2.4,3.5,100,0.00,CLR,OVC,0.00,WeatherDisplay:10.37,2013-08-15 09:23:00,
2013-08-15 05:24:00,51.8,51.5,29.98,South,180,2.1,3.5,99,0.00,CLR,OVC,0.00,WeatherDisplay:10.37,2013-08-15 09:24:00,
2013-08-15 05:26:00,51.7,51.4,29.98,South,179,1.6,2.3,99,0.00,CLR,OVC,0.00,WeatherDisplay:10.37,2013-08-15 09:26:00,
2013-08-15 05:27:00,51.6,51.3,29.98,South,180,1.0,3.5,99,0.00,CLR,OVC,0.00,WeatherDisplay:10.37,2013-08-15 09:27:00,
2013-08-15 05:28:00,51.6,51.3,29.98,South,179,0.9,2.3,99,0.00,CLR,OVC,0.00,WeatherDisplay:10.37,2013-08-15 09:28:00,
2013-08-15 05:29:00,51.6,51.3,29.98,South,179,0.3,1.2,99,0.00,CLR,OVC,0.00,WeatherDisplay:10.37,2013-08-15 09:29:00,
2013-08-15 05:31:00,51.5,51.2,29.98,South,179,0.8,1.2,99,0.00,CLR,OVC,0.00,WeatherDisplay:10.37,2013-08-15 09:31:00,
2013-08-15 05:32:00,51.5,51.5,29.98,South,180,0.2,2.3,100,0.00,CLR,OVC,0.00,WeatherDisplay:10.37,2013-08-15 09:32:00,
2013-08-15 05:33:00,51.5,51.2,29.98,South,179,0.0,0.0,99,0.00,CLR,OVC,0.00,WeatherDisplay:10.37,2013-08-15 09:33:00,
2013-08-15 05:34:00,51.5,51.5,29.99,South,180,0.3,2.0,100,0.00,CLR,OVC,0.00,WeatherDisplay:10.37,2013-08-15 09:34:00,
2013-08-15 05:36:00,51.5,51.5,29.98,South,180,1.0,2.3,100,0.00,CLR,OVC,0.00,WeatherDisplay:10.37,2013-08-15 09:36:00,
2013-08-15 05:37:00,51.5,51.2,29.98,South,180,1.0,2.3,99,0.00,CLR,OVC,0.00,WeatherDisplay:10.37,2013-08-15 09:37:00,
2013-08-15 05:38:00,51.5,51.2,29.98,South,180,1.4,2.3,99,0.00,CLR,OVC,0.00,WeatherDisplay:10.37,2013-08-15 09:38:00,
2013-08-15 05:39:00,51.5,51.5,29.98,South,179,0.7,2.3,100,0.00,CLR,OVC,0.00,WeatherDisplay:10.37,2013-08-15 09:39:00,
2013-08-15 05:42:00,51.6,51.6,29.98,South,179,1.3,3.5,100,0.00,CLR,OVC,0.00,WeatherDisplay:10.37,2013-08-15 09:42:00,
2013-08-15 05:43:00,51.6,51.3,29.99,South,179,0.0,1.2,99,0.00,CLR,OVC,0.00,WeatherDisplay:10.37,2013-08-15 09:43:00,
2013-08-15 05:44:00,51.6,51.3,29.99,South,180,0.0,0.0,99,0.00,CLR,OVC,0.00,WeatherDisplay:10.37,2013-08-15 09:44:00,
2013-08-15 05:47:00,51.6,51.3,29.99,South,180,1.0,2.3,99,0.00,CLR,OVC,0.00,WeatherDisplay:10.37,2013-08-15 09:47:00,
2013-08-15 05:48:00,51.6,51.3,29.99,South,180,1.3,3.5,99,0.00,CLR,OVC,0.00,WeatherDisplay:10.37,2013-08-15 09:48:00,
2013-08-15 05:49:00,51.6,51.6,29.98,South,180,0.7,2.3,100,0.00,CLR,OVC,0.00,WeatherDisplay:10.37,2013-08-15 09:49:00,
2013-08-15 05:52:00,51.6,51.6,29.99,South,179,2.4,3.5,100,0.00,CLR,OVC,0.00,WeatherDisplay:10.37,2013-08-15 09:52:00,
2013-08-15 05:53:00,51.5,51.2,29.98,South,179,2.7,4.0,99,0.00,CLR,OVC,0.00,WeatherDisplay:10.37,2013-08-15 09:53:00,
2013-08-15 05:54:00,51.5,51.2,29.99,South,180,2.1,3.5,99,0.00,CLR,OVC,0.00,WeatherDisplay:10.37,2013-08-15 09:54:00,
2013-08-15 05:55:00,51.6,51.6,29.99,South,180,2.6,3.5,100,0.00,CLR,OVC,0.00,WeatherDisplay:10.37,2013-08-15 09:55:00,
2013-08-15 05:57:00,51.6,51.6,29.99,South,179,1.1,3.5,100,0.00,CLR,OVC,0.00,WeatherDisplay:10.37,2013-08-15 09:57:00,
2013-08-15 05:58:00,51.5,51.2,29.99,South,180,2.0,3.5,99,0.00,CLR,OVC,0.00,WeatherDisplay:10.37,2013-08-15 09:58:00,
2013-08-15 05:59:00,51.5,51.5,29.98,South,179,1.4,3.5,100,0.00,CLR,OVC,0.00,WeatherDisplay:10.37,2013-08-15 09:59:00,
2013-08-15 06:00:00,51.5,51.2,29.99,South,180,0.8,2.3,99,0.00,CLR,OVC,0.00,WeatherDisplay:10.37,2013-08-15 10:00:00,
2013-08-15 06:02:00,51.4,51.1,29.99,South,180,1.8,2.3,99,0.00,CLR,OVC,0.00,WeatherDisplay:10.37,2013-08-15 10:02:00,
2013-08-15 06:03:00,51.4,51.1,29.99,South,180,1.8,3.5,99,0.00,CLR,OVC,0.00,WeatherDisplay:10.37,2013-08-15 10:03:00,
2013-08-15 06:04:00,51.4,51.4,29.99,South,180,2.0,3.5,100,0.00,CLR,OVC,0.00,WeatherDisplay:10.37,2013-08-15 10:04:00,
2013-08-15 06:06:00,51.4,51.4,29.99,South,179,1.7,3.5,100,0.00,CLR,OVC,0.00,WeatherDisplay:10.37,2013-08-15 10:06:00,
2013-08-15 06:08:00,51.4,51.4,29.99,South,180,0.6,2.3,100,0.00,CLR,OVC,0.00,WeatherDisplay:10.37,2013-08-15 10:08:00,
2013-08-15 06:09:00,51.5,51.5,29.99,South,180,0.4,1.2,100,0.00,CLR,OVC,0.00,WeatherDisplay:10.37,2013-08-15 10:09:00,
2013-08-15 06:11:00,51.5,51.2,29.99,South,180,0.1,1.2,99,0.00,CLR,OVC,0.00,WeatherDisplay:10.37,2013-08-15 10:11:00,
2013-08-15 06:13:00,51.6,51.6,29.99,South,180,0.1,1.2,100,0.00,CLR,OVC,0.00,WeatherDisplay:10.37,2013-08-15 10:13:00,
2013-08-15 06:14:00,51.6,51.6,29.99,South,179,0.0,0.0,100,0.00,CLR,OVC,0.00,WeatherDisplay:10.37,2013-08-15 10:14:00,
2013-08-15 06:15:00,51.6,51.6,29.99,South,179,0.0,0.0,100,0.00,CLR,OVC,0.00,WeatherDisplay:10.37,2013-08-15 10:15:00,
2013-08-15 06:16:00,51.7,51.7,29.99,South,179,0.0,0.0,100,0.00,CLR,OVC,0.00,WeatherDisplay:10.37,2013-08-15 10:16:00,
2013-08-15 06:18:00,51.8,51.8,29.99,South,179,0.0,0.0,100,0.00,CLR,OVC,0.00,WeatherDisplay:10.37,2013-08-15 10:18:00,
2013-08-15 06:19:00,51.8,51.8,29.99,South,179,0.0,0.0,100,0.00,CLR,OVC,0.00,WeatherDisplay:10.37,2013-08-15 10:19:00,
2013-08-15 06:20:00,51.9,51.9,29.99,South,179,0.0,0.0,100,0.00,CLR,OVC,0.00,WeatherDisplay:10.37,2013-08-15 10:20:00,
2013-08-15 06:21:00,51.9,51.9,29.99,South,180,0.0,0.0,100,0.00,CLR,OVC,0.00,WeatherDisplay:10.37,2013-08-15 10:21:00,
2013-08-15 06:23:00,52.0,52.0,29.99,South,180,0.7,2.3,100,0.00,CLR,OVC,0.00,WeatherDisplay:10.37,2013-08-15 10:23:00,
2013-08-15 06:24:00,52.0,52.0,29.99,South,179,0.1,2.3,100,0.00,CLR,OVC,0.00,WeatherDisplay:10.37,2013-08-15 10:24:00,
2013-08-15 06:25:00,52.1,52.1,29.99,South,180,0.0,0.0,100,0.00,CLR,OVC,0.00,WeatherDisplay:10.37,2013-08-15 10:25:00,
2013-08-15 06:26:00,52.1,52.1,29.99,South,180,0.3,1.2,100,0.00,CLR,OVC,0.00,WeatherDisplay:10.37,2013-08-15 10:26:00,
2013-08-15 06:28:00,52.1,52.1,29.99,South,179,0.4,1.0,100,0.00,CLR,OVC,0.00,WeatherDisplay:10.37,2013-08-15 10:28:00,
2013-08-15 06:29:00,52.2,52.2,29.99,South,180,0.5,2.0,100,0.00,CLR,OVC,0.00,WeatherDisplay:10.37,2013-08-15 10:29:00,
2013-08-15 06:30:00,52.2,52.2,29.99,South,179,1.3,3.5,100,0.00,CLR,OVC,0.00,WeatherDisplay:10.37,2013-08-15 10:30:00,
2013-08-15 06:31:00,52.3,52.3,29.99,South,180,2.8,3.5,100,0.00,CLR,OVC,0.00,WeatherDisplay:10.37,2013-08-15 10:31:00,
2013-08-15 06:33:00,52.4,52.4,29.99,South,179,2.0,3.5,100,0.00,CLR,OVC,0.00,WeatherDisplay:10.37,2013-08-15 10:33:00,
2013-08-15 06:34:00,52.5,52.5,29.99,South,180,1.6,3.5,100,0.00,CLR,OVC,0.00,WeatherDisplay:10.37,2013-08-15 10:34:00,
2013-08-15 06:35:00,52.6,52.6,29.99,South,178,2.9,9.0,100,0.00,CLR,OVC,0.00,WeatherDisplay:10.37,2013-08-15 10:35:00,
2013-08-15 06:36:00,52.9,52.9,29.99,South,183,3.2,11.5,100,0.00,CLR,OVC,0.00,WeatherDisplay:10.37,2013-08-15 10:36:00,
2013-08-15 06:38:00,53.2,53.2,29.99,South,183,3.9,4.6,100,0.00,CLR,OVC,0.00,WeatherDisplay:10.37,2013-08-15 10:38:00,
2013-08-15 06:39:00,53.4,53.4,29.99,South,183,4.0,5.8,100,0.00,CLR,OVC,0.00,WeatherDisplay:10.37,2013-08-15 10:39:00,
2013-08-15 06:40:00,53.5,53.5,29.99,South,183,3.3,4.6,100,0.00,CLR,OVC,0.00,WeatherDisplay:10.37,2013-08-15 10:40:00,
2013-08-15 06:42:00,53.8,53.8,29.99,South,183,2.4,3.5,100,0.00,CLR,OVC,0.00,WeatherDisplay:10.37,2013-08-15 10:42:00,
2013-08-15 06:43:00,54.0,54.0,29.99,South,188,3.0,6.0,100,0.00,CLR,OVC,0.00,WeatherDisplay:10.37,2013-08-15 10:43:00,
2013-08-15 06:44:00,54.1,54.1,29.99,SSW,203,6.4,6.4,100,0.00,CLR,OVC,0.00,WeatherDisplay:10.37,2013-08-15 10:44:00,
2013-08-15 06:45:00,54.2,54.2,29.99,SSW,205,5.3,10.4,100,0.00,CLR,OVC,0.00,WeatherDisplay:10.37,2013-08-15 10:45:00,
2013-08-15 06:46:00,54.3,54.3,30.00,SSW,203,4.5,6.9,100,0.00,CLR,OVC,0.00,WeatherDisplay:10.37,2013-08-15 10:46:00,
2013-08-15 06:47:00,54.4,54.4,29.99,South,182,3.9,10.0,100,0.00,CLR,OVC,0.00,WeatherDisplay:10.37,2013-08-15 10:47:00,
2013-08-15 06:49:00,54.6,54.6,30.00,SSE,160,5.6,9.2,100,0.00,CLR,OVC,0.00,WeatherDisplay:10.37,2013-08-15 10:49:00,
2013-08-15 06:50:00,54.8,54.8,30.00,SSE,159,4.2,6.9,100,0.00,CLR,OVC,0.00,WeatherDisplay:10.37,2013-08-15 10:50:00,
2013-08-15 06:51:00,54.9,54.9,30.00,South,184,4.6,6.9,100,0.00,CLR,OVC,0.00,WeatherDisplay:10.37,2013-08-15 10:51:00,
2013-08-15 06:52:00,55.0,55.0,30.00,South,184,4.3,8.1,100,0.00,CLR,OVC,0.00,WeatherDisplay:10.37,2013-08-15 10:52:00,
2013-08-15 06:54:00,55.2,55.2,30.00,SSW,205,4.7,6.9,100,0.00,CLR,OVC,0.00,WeatherDisplay:10.37,2013-08-15 10:54:00,
2013-08-15 06:55:00,55.3,55.3,30.00,SSE,167,4.4,10.4,100,0.00,CLR,OVC,0.00,WeatherDisplay:10.37,2013-08-15 10:55:00,
2013-08-15 06:57:00,55.4,55.1,30.00,SSE,167,3.4,4.6,99,0.00,CLR,OVC,0.00,WeatherDisplay:10.37,2013-08-15 10:57:00,
2013-08-15 06:59:00,55.5,55.2,30.00,SSE,167,3.1,4.6,99,0.00,CLR,OVC,0.00,WeatherDisplay:10.37,2013-08-15 10:59:00,
2013-08-15 07:00:00,55.6,55.3,30.00,SW,216,4.7,5.8,99,0.00,CLR,OVC,0.00,WeatherDisplay:10.37,2013-08-15 11:00:00,
2013-08-15 07:02:00,55.5,54.9,30.00,SW,216,3.6,4.6,98,0.00,CLR,OVC,0.00,WeatherDisplay:10.37,2013-08-15 11:02:00,
2013-08-15 07:04:00,55.6,55.0,30.01,SW,217,4.9,6.9,98,0.00,CLR,OVC,0.00,WeatherDisplay:10.37,2013-08-15 11:04:00,
2013-08-15 07:05:00,55.6,55.0,30.00,SSW,205,5.5,6.9,98,0.00,CLR,OVC,0.00,WeatherDisplay:10.37,2013-08-15 11:05:00,
2013-08-15 07:07:00,55.6,55.0,30.01,SSW,205,4.9,5.8,98,0.00,CLR,OVC,0.00,WeatherDisplay:10.37,2013-08-15 11:07:00,
2013-08-15 07:09:00,55.6,55.0,30.01,SSW,192,5.2,8.1,98,0.00,CLR,OVC,0.00,WeatherDisplay:10.37,2013-08-15 11:09:00,
2013-08-15 07:10:00,55.6,55.0,30.01,SSW,196,6.2,10.4,98,0.00,CLR,OVC,0.00,WeatherDisplay:10.37,2013-08-15 11:10:00,
2013-08-15 07:12:00,55.7,55.1,30.01,SSW,196,4.0,6.9,98,0.00,CLR,OVC,0.00,WeatherDisplay:10.37,2013-08-15 11:12:00,
2013-08-15 07:14:00,55.8,55.0,30.01,South,179,7.4,11.5,97,0.00,CLR,OVC,0.00,WeatherDisplay:10.37,2013-08-15 11:14:00,
2013-08-15 07:16:00,55.8,55.2,30.01,South,180,5.5,6.9,98,0.00,CLR,OVC,0.00,WeatherDisplay:10.37,2013-08-15 11:16:00,
2013-08-15 07:17:00,55.9,55.1,30.01,SSW,192,5.2,10.0,97,0.00,CLR,OVC,0.00,WeatherDisplay:10.37,2013-08-15 11:17:00,
2013-08-15 07:18:00,55.9,55.1,30.01,South,176,6.9,10.4,97,0.00,CLR,OVC,0.00,WeatherDisplay:10.37,2013-08-15 11:18:00,
2013-08-15 07:19:00,56.1,55.3,30.01,SSE,162,5.1,10.4,97,0.00,CLR,OVC,0.00,WeatherDisplay:10.37,2013-08-15 11:19:00,
2013-08-15 07:21:00,56.2,55.4,30.01,South,172,5.4,8.1,97,0.00,CLR,OVC,0.00,WeatherDisplay:10.37,2013-08-15 11:21:00,
2013-08-15 07:22:00,56.3,55.5,30.01,South,177,5.9,9.2,97,0.00,CLR,OVC,0.00,WeatherDisplay:10.37,2013-08-15 11:22:00,
2013-08-15 07:23:00,56.3,55.5,30.01,South,188,5.8,9.2,97,0.00,CLR,OVC,0.00,WeatherDisplay:10.37,2013-08-15 11:23:00,
2013-08-15 07:24:00,56.4,55.6,30.01,South,183,5.6,11.5,97,0.00,CLR,OVC,0.00,WeatherDisplay:10.37,2013-08-15 11:24:00,
2013-08-15 07:26:00,56.5,55.7,30.01,South,181,7.2,11.5,97,0.00,CLR,OVC,0.00,WeatherDisplay:10.37,2013-08-15 11:26:00,
2013-08-15 07:27:00,56.6,55.5,30.01,SSW,194,6.4,9.2,96,0.00,CLR,OVC,0.00,WeatherDisplay:10.37,2013-08-15 11:27:00,
2013-08-15 07:28:00,56.7,55.6,30.01,South,185,7.5,10.4,96,0.00,CLR,OVC,0.00,WeatherDisplay:10.37,2013-08-15 11:28:00,
2013-08-15 07:29:00,56.8,55.7,30.01,South,181,8.9,9.2,96,0.00,CLR,OVC,0.00,WeatherDisplay:10.37,2013-08-15 11:29:00,
2013-08-15 07:31:00,56.8,55.7,30.01,SSE,158,8.3,11.5,96,0.00,CLR,OVC,0.00,WeatherDisplay:10.37,2013-08-15 11:31:00,
2013-08-15 07:32:00,57.0,55.9,30.01,SSW,195,6.2,11.5,96,0.00,CLR,OVC,0.00,WeatherDisplay:10.37,2013-08-15 11:32:00,
2013-08-15 07:33:00,57.0,55.6,30.01,South,189,5.5,10.4,95,0.00,CLR,OVC,0.00,WeatherDisplay:10.37,2013-08-15 11:33:00,
2013-08-15 07:35:00,57.1,55.7,30.01,SSW,195,7.2,11.5,95,0.00,CLR,OVC,0.00,WeatherDisplay:10.37,2013-08-15 11:35:00,
2013-08-15 07:36:00,57.2,55.8,30.02,SSW,194,6.4,11.5,95,0.00,CLR,OVC,0.00,WeatherDisplay:10.37,2013-08-15 11:36:00,
2013-08-15 07:38:00,57.3,55.9,30.01,South,187,7.3,10.4,95,0.00,CLR,OVC,0.00,WeatherDisplay:10.37,2013-08-15 11:38:00,
2013-08-15 07:40:00,57.4,55.7,30.02,SSW,202,9.5,13.8,94,0.00,CLR,OVC,0.00,WeatherDisplay:10.37,2013-08-15 11:40:00,
2013-08-15 07:42:00,57.5,55.8,30.02,SSE,167,5.5,9.2,94,0.00,CLR,OVC,0.00,WeatherDisplay:10.37,2013-08-15 11:42:00,
2013-08-15 07:43:00,57.6,55.9,30.02,SSW,193,8.0,11.5,94,0.00,CLR,OVC,0.00,WeatherDisplay:10.37,2013-08-15 11:43:00,
2013-08-15 07:45:00,57.7,56.0,30.02,South,187,6.1,11.5,94,0.00,CLR,OVC,0.00,WeatherDisplay:10.37,2013-08-15 11:45:00,
2013-08-15 07:47:00,57.7,55.7,30.02,South,187,6.2,11.5,93,0.00,CLR,OVC,0.00,WeatherDisplay:10.37,2013-08-15 11:47:00,
2013-08-15 07:48:00,57.7,55.7,30.02,South,188,4.6,8.1,93,0.00,CLR,OVC,0.00,WeatherDisplay:10.37,2013-08-15 11:48:00,
2013-08-15 07:49:00,57.8,55.8,30.02,SSW,194,6.1,8.1,93,0.00,CLR,OVC,0.00,WeatherDisplay:10.37,2013-08-15 11:49:00,
2013-08-15 07:50:00,57.8,55.8,30.02,SSW,194,5.3,8.1,93,0.00,CLR,OVC,0.00,WeatherDisplay:10.37,2013-08-15 11:50:00,
2013-08-15 07:52:00,57.9,55.9,30.02,South,179,5.0,7.0,93,0.00,CLR,OVC,0.00,WeatherDisplay:10.37,2013-08-15 11:52:00,
2013-08-15 07:53:00,57.9,55.9,30.02,South,177,4.5,6.9,93,0.00,CLR,OVC,0.00,WeatherDisplay:10.37,2013-08-15 11:53:00,
2013-08-15 07:54:00,57.9,55.9,30.02,South,175,3.7,5.8,93,0.00,CLR,OVC,0.00,WeatherDisplay:10.37,2013-08-15 11:54:00,
2013-08-15 07:56:00,58.0,56.0,30.02,SSE,165,5.1,8.1,93,0.00,CLR,OVC,0.00,WeatherDisplay:10.37,2013-08-15 11:56:00,
2013-08-15 07:57:00,58.0,55.7,30.02,South,190,7.7,11.5,92,0.00,CLR,OVC,0.00,WeatherDisplay:10.37,2013-08-15 11:57:00,
2013-08-15 07:58:00,58.1,56.1,30.02,South,186,8.9,11.5,93,0.00,CLR,OVC,0.00,WeatherDisplay:10.37,2013-08-15 11:58:00,
2013-08-15 07:59:00,58.0,55.7,30.02,South,183,7.4,11.5,92,0.00,CLR,OVC,0.00,WeatherDisplay:10.37,2013-08-15 11:59:00,
2013-08-15 08:01:00,58.1,55.8,30.02,South,179,5.1,7.0,92,0.00,CLR,OVC,0.00,WeatherDisplay:10.37,2013-08-15 12:01:00,
2013-08-15 08:02:00,58.0,55.7,30.02,South,189,6.0,10.4,92,0.00,CLR,OVC,0.00,WeatherDisplay:10.37,2013-08-15 12:02:00,
2013-08-15 08:03:00,58.0,55.4,30.02,SSE,164,6.1,9.2,91,0.00,CLR,OVC,0.00,WeatherDisplay:10.37,2013-08-15 12:03:00,
2013-08-15 08:04:00,58.0,55.7,30.02,SSE,157,5.9,6.9,92,0.00,CLR,OVC,0.00,WeatherDisplay:10.37,2013-08-15 12:04:00,
2013-08-15 08:06:00,58.0,55.7,30.02,South,183,5.4,8.1,92,0.00,CLR,OVC,0.00,WeatherDisplay:10.37,2013-08-15 12:06:00,
2013-08-15 08:07:00,58.0,55.4,30.02,South,183,4.2,8.1,91,0.00,CLR,OVC,0.00,WeatherDisplay:10.37,2013-08-15 12:07:00,
2013-08-15 08:08:00,58.0,55.4,30.02,SSE,159,5.0,6.0,91,0.00,CLR,OVC,0.00,WeatherDisplay:10.37,2013-08-15 12:08:00,
2013-08-15 08:09:00,58.0,55.4,30.02,SSE,159,6.1,8.1,91,0.00,CLR,OVC,0.00,WeatherDisplay:10.37,2013-08-15 12:09:00,
2013-08-15 08:10:00,58.0,55.4,30.02,SSE,159,4.3,8.1,91,0.00,CLR,OVC,0.00,WeatherDisplay:10.37,2013-08-15 12:10:00,
2013-08-15 08:11:00,58.0,55.4,30.02,SSE,161,4.4,6.0,91,0.00,CLR,OVC,0.00,WeatherDisplay:10.37,2013-08-15 12:11:00,
2013-08-15 08:12:00,58.0,55.4,30.02,SSE,154,5.3,6.9,91,0.00,CLR,OVC,0.00,WeatherDisplay:10.37,2013-08-15 12:12:00,
2013-08-15 08:13:00,58.0,55.4,30.02,SSE,155,4.3,6.0,91,0.00,CLR,OVC,0.00,WeatherDisplay:10.37,2013-08-15 12:13:00,
2013-08-15 08:14:00,58.0,55.4,30.02,SSE,156,4.2,6.9,91,0.00,CLR,OVC,0.00,WeatherDisplay:10.37,2013-08-15 12:14:00,
2013-08-15 08:15:00,58.0,55.4,30.02,SSE,157,4.6,6.9,91,0.00,CLR,OVC,0.00,WeatherDisplay:10.37,2013-08-15 12:15:00,
2013-08-15 08:16:00,58.0,55.4,30.02,SSE,157,3.4,5.8,91,0.00,CLR,OVC,0.00,WeatherDisplay:10.37,2013-08-15 12:16:00,
2013-08-15 08:18:00,58.0,55.4,30.02,SSE,163,4.1,7.0,91,0.00,CLR,OVC,0.00,WeatherDisplay:10.37,2013-08-15 12:18:00,
2013-08-15 08:19:00,58.0,55.4,30.02,SSE,168,4.4,6.9,91,0.00,CLR,OVC,0.00,WeatherDisplay:10.37,2013-08-15 12:19:00,
2013-08-15 08:20:00,58.1,55.5,30.02,SSE,166,4.7,6.9,91,0.00,CLR,OVC,0.00,WeatherDisplay:10.37,2013-08-15 12:20:00,
2013-08-15 08:21:00,58.1,55.5,30.02,SSE,166,4.8,6.9,91,0.00,CLR,OVC,0.00,WeatherDisplay:10.37,2013-08-15 12:21:00,
2013-08-15 08:23:00,58.2,55.6,30.03,SSE,165,3.2,5.0,91,0.00,CLR,OVC,0.00,WeatherDisplay:10.37,2013-08-15 12:23:00,
2013-08-15 08:24:00,58.2,55.6,30.03,SSE,164,3.4,4.6,91,0.00,CLR,OVC,0.00,WeatherDisplay:10.37,2013-08-15 12:24:00,
2013-08-15 08:26:00,58.3,55.7,30.02,SSE,164,4.0,5.8,91,0.00,CLR,OVC,0.00,WeatherDisplay:10.37,2013-08-15 12:26:00,
2013-08-15 08:27:00,58.3,55.7,30.03,South,189,4.4,5.0,91,0.00,CLR,OVC,0.00,WeatherDisplay:10.37,2013-08-15 12:27:00,
2013-08-15 08:28:00,58.4,55.8,30.03,SSE,148,6.3,10.4,91,0.00,CLR,OVC,0.00,WeatherDisplay:10.37,2013-08-15 12:28:00,
2013-08-15 08:29:00,58.4,55.8,30.02,SSE,148,4.8,10.4,91,0.00,CLR,OVC,0.00,WeatherDisplay:10.37,2013-08-15 12:29:00,
2013-08-15 08:31:00,58.5,55.9,30.03,South,169,7.3,11.5,91,0.00,CLR,OVC,0.00,WeatherDisplay:10.37,2013-08-15 12:31:00,
2013-08-15 08:32:00,58.5,55.9,30.02,South,169,3.5,6.9,91,0.00,CLR,OVC,0.00,WeatherDisplay:10.37,2013-08-15 12:32:00,
2013-08-15 08:33:00,58.5,55.9,30.03,South,169,3.4,4.6,91,0.00,CLR,OVC,0.00,WeatherDisplay:10.37,2013-08-15 12:33:00,
2013-08-15 08:34:00,58.6,56.0,30.03,South,169,3.3,4.6,91,0.00,CLR,OVC,0.00,WeatherDisplay:10.37,2013-08-15 12:34:00,
2013-08-15 08:36:00,58.7,56.1,30.02,South,187,4.9,8.1,91,0.00,CLR,OVC,0.00,WeatherDisplay:10.37,2013-08-15 12:36:00,
2013-08-15 08:38:00,58.9,56.3,30.03,South,185,4.8,7.0,91,0.00,CLR,OVC,0.00,WeatherDisplay:10.37,2013-08-15 12:38:00,
2013-08-15 08:39:00,59.0,56.4,30.03,South,188,6.7,9.2,91,0.00,CLR,OVC,0.00,WeatherDisplay:10.37,2013-08-15 12:39:00,
2013-08-15 08:41:00,59.2,56.6,30.03,South,179,7.6,11.5,91,0.00,CLR,OVC,0.00,WeatherDisplay:10.37,2013-08-15 12:41:00,
2013-08-15 08:43:00,59.4,56.5,30.02,SSE,168,8.4,12.7,90,0.00,CLR,OVC,0.00,WeatherDisplay:10.37,2013-08-15 12:43:00,
2013-08-15 08:44:00,59.6,56.7,30.02,South,182,5.8,9.2,90,0.00,CLR,OVC,0.00,WeatherDisplay:10.37,2013-08-15 12:44:00,
2013-08-15 08:45:00,59.7,56.8,30.02,SSW,198,5.9,9.2,90,0.00,CLR,OVC,0.00,WeatherDisplay:10.37,2013-08-15 12:45:00,
2013-08-15 08:46:00,59.8,56.9,30.02,South,190,9.0,11.5,90,0.00,CLR,OVC,0.00,WeatherDisplay:10.37,2013-08-15 12:46:00,
2013-08-15 08:48:00,60.0,56.7,30.02,South,176,7.6,9.2,89,0.00,CLR,OVC,0.00,WeatherDisplay:10.37,2013-08-15 12:48:00,
2013-08-15 08:49:00,60.2,56.9,30.02,South,175,7.6,12.0,89,0.00,CLR,OVC,0.00,WeatherDisplay:10.37,2013-08-15 12:49:00,
2013-08-15 08:50:00,60.2,56.9,30.03,South,172,8.2,11.5,89,0.00,CLR,OVC,0.00,WeatherDisplay:10.37,2013-08-15 12:50:00,
2013-08-15 08:51:00,60.3,56.7,30.02,SSE,165,7.6,11.5,88,0.00,CLR,OVC,0.00,WeatherDisplay:10.37,2013-08-15 12:51:00,
2013-08-15 08:53:00,60.4,56.8,30.02,South,188,8.1,11.5,88,0.00,CLR,OVC,0.00,WeatherDisplay:10.37,2013-08-15 12:53:00,
2013-08-15 08:54:00,60.4,56.8,30.02,South,186,7.5,11.5,88,0.00,CLR,OVC,0.00,WeatherDisplay:10.37,2013-08-15 12:54:00,
2013-08-15 08:55:00,60.5,56.9,30.02,South,180,5.1,10.4,88,0.00,CLR,OVC,0.00,WeatherDisplay:10.37,2013-08-15 12:55:00,
2013-08-15 08:56:00,60.6,57.0,30.02,South,178,7.0,8.1,88,0.00,CLR,OVC,0.00,WeatherDisplay:10.37,2013-08-15 12:56:00,
2013-08-15 08:59:00,60.7,56.8,30.02,South,177,8.0,11.5,87,0.00,CLR,OVC,0.00,WeatherDisplay:10.37,2013-08-15 12:59:00,
2013-08-15 09:00:00,60.8,56.9,30.02,South,182,4.9,9.2,87,0.00,CLR,OVC,0.00,WeatherDisplay:10.37,2013-08-15 13:00:00,
2013-08-15 09:01:00,60.8,56.9,30.02,South,184,4.9,8.1,87,0.00,CLR,OVC,0.00,WeatherDisplay:10.37,2013-08-15 13:01:00,
2013-08-15 09:04:00,61.1,57.2,30.02,SSE,167,5.7,9.2,87,0.00,CLR,OVC,0.00,WeatherDisplay:10.37,2013-08-15 13:04:00,
2013-08-15 09:05:00,61.1,57.2,30.02,SSW,193,6.4,8.1,87,0.00,CLR,OVC,0.00,WeatherDisplay:10.37,2013-08-15 13:05:00,
2013-08-15 09:06:00,61.2,57.3,30.02,SSW,194,6.0,9.2,87,0.00,CLR,OVC,0.00,WeatherDisplay:10.37,2013-08-15 13:06:00,
2013-08-15 09:09:00,61.5,57.3,30.02,South,174,6.1,8.1,86,0.00,CLR,OVC,0.00,WeatherDisplay:10.37,2013-08-15 13:09:00,
2013-08-15 09:11:00,61.7,57.8,30.02,SSW,204,3.8,6.9,87,0.00,CLR,OVC,0.00,WeatherDisplay:10.37,2013-08-15 13:11:00,
2013-08-15 09:14:00,61.9,57.7,30.02,South,180,7.3,10.4,86,0.00,CLR,OVC,0.00,WeatherDisplay:10.37,2013-08-15 13:14:00,
2013-08-15 09:16:00,62.0,57.4,30.02,South,178,5.5,10.4,85,0.00,CLR,OVC,0.00,WeatherDisplay:10.37,2013-08-15 13:16:00,
2013-08-15 09:17:00,62.1,57.9,30.02,SSW,197,4.8,9.0,86,0.00,CLR,OVC,0.00,WeatherDisplay:10.37,2013-08-15 13:17:00,
2013-08-15 09:19:00,62.4,57.8,30.02,South,191,7.2,9.2,85,0.00,CLR,OVC,0.00,WeatherDisplay:10.37,2013-08-15 13:19:00,
2013-08-15 09:21:00,62.6,58.0,30.02,SSW,192,6.9,11.5,85,0.00,CLR,OVC,0.00,WeatherDisplay:10.37,2013-08-15 13:21:00,
2013-08-15 09:22:00,62.6,58.0,30.02,SSW,193,5.8,11.5,85,0.00,CLR,OVC,0.00,WeatherDisplay:10.37,2013-08-15 13:22:00,
2013-08-15 09:24:00,63.1,58.5,30.03,South,187,6.3,6.9,85,0.00,CLR,OVC,0.00,WeatherDisplay:10.37,2013-08-15 13:24:00,
2013-08-15 09:26:00,63.3,58.7,30.03,SSW,213,7.7,9.2,85,0.00,CLR,OVC,0.00,WeatherDisplay:10.37,2013-08-15 13:26:00,
2013-08-15 09:27:00,63.3,58.4,30.03,SSW,209,7.1,10.4,84,0.00,CLR,OVC,0.00,WeatherDisplay:10.37,2013-08-15 13:27:00,
2013-08-15 09:30:00,63.6,58.7,30.03,South,175,7.8,11.5,84,0.00,CLR,OVC,0.00,WeatherDisplay:10.37,2013-08-15 13:30:00,
2013-08-15 09:31:00,63.8,58.9,30.03,SSW,210,6.6,9.2,84,0.00,CLR,OVC,0.00,WeatherDisplay:10.37,2013-08-15 13:31:00,
2013-08-15 09:32:00,63.9,59.0,30.03,SSW,207,6.8,9.2,84,0.00,CLR,OVC,0.00,WeatherDisplay:10.37,2013-08-15 13:32:00,
2013-08-15 09:35:00,64.1,58.8,30.02,South,182,7.4,10.4,83,0.00,CLR,OVC,0.00,WeatherDisplay:10.37,2013-08-15 13:35:00,
2013-08-15 09:36:00,64.3,58.7,30.03,SW,224,7.2,8.1,82,0.00,CLR,OVC,0.00,WeatherDisplay:10.37,2013-08-15 13:36:00,
2013-08-15 09:37:00,64.3,59.0,30.03,South,173,7.0,11.5,83,0.00,CLR,OVC,0.00,WeatherDisplay:10.37,2013-08-15 13:37:00,
2013-08-15 09:38:00,64.4,58.8,30.02,South,183,7.8,11.5,82,0.00,CLR,OVC,0.00,WeatherDisplay:10.37,2013-08-15 13:38:00,
2013-08-15 09:40:00,64.5,58.9,30.03,South,186,7.7,10.0,82,0.00,CLR,OVC,0.00,WeatherDisplay:10.37,2013-08-15 13:40:00,
2013-08-15 09:41:00,64.6,59.0,30.02,SE,139,7.9,13.0,82,0.00,CLR,OVC,0.00,WeatherDisplay:10.37,2013-08-15 13:41:00,
2013-08-15 09:42:00,64.7,59.1,30.03,SSE,160,8.6,12.7,82,0.00,CLR,OVC,0.00,WeatherDisplay:10.37,2013-08-15 13:42:00,
2013-08-15 09:43:00,64.7,59.1,30.02,SSW,204,6.4,12.7,82,0.00,CLR,OVC,0.00,WeatherDisplay:10.37,2013-08-15 13:43:00,
2013-08-15 09:45:00,65.0,59.4,30.03,South,184,6.2,11.5,82,0.00,CLR,OVC,0.00,WeatherDisplay:10.37,2013-08-15 13:45:00,
2013-08-15 09:47:00,65.2,59.6,30.02,South,187,4.9,7.0,82,0.00,CLR,OVC,0.00,WeatherDisplay:10.37,2013-08-15 13:47:00,
2013-08-15 09:48:00,65.3,59.3,30.02,SSW,206,9.0,10.4,81,0.00,CLR,OVC,0.00,WeatherDisplay:10.37,2013-08-15 13:48:00,
2013-08-15 09:49:00,65.3,59.3,30.02,SSW,203,7.6,11.5,81,0.00,CLR,OVC,0.00,WeatherDisplay:10.37,2013-08-15 13:49:00,
2013-08-15 09:50:00,65.4,59.4,30.02,SW,218,6.6,9.2,81,0.00,CLR,OVC,0.00,WeatherDisplay:10.37,2013-08-15 13:50:00,
2013-08-15 09:52:00,65.4,59.4,30.03,SSW,195,6.4,10.4,81,0.00,CLR,OVC,0.00,WeatherDisplay:10.37,2013-08-15 13:52:00,
2013-08-15 09:53:00,65.5,59.5,30.02,South,186,6.4,11.5,81,0.00,CLR,OVC,0.00,WeatherDisplay:10.37,2013-08-15 13:53:00,
2013-08-15 09:55:00,65.6,59.3,30.03,SSW,199,9.1,12.7,80,0.00,CLR,OVC,0.00,WeatherDisplay:10.37,2013-08-15 13:55:00,
2013-08-15 09:57:00,65.7,59.4,30.03,SSW,205,8.1,11.5,80,0.00,CLR,OVC,0.00,WeatherDisplay:10.37,2013-08-15 13:57:00,
2013-08-15 09:59:00,65.8,59.5,30.02,South,180,6.8,10.4,80,0.00,CLR,OVC,0.00,WeatherDisplay:10.37,2013-08-15 13:59:00,
2013-08-15 10:01:00,66.0,59.7,30.02,SSW,193,5.8,11.0,80,0.00,CLR,OVC,0.00,WeatherDisplay:10.37,2013-08-15 14:01:00,
2013-08-15 10:02:00,66.2,59.5,30.02,South,189,8.2,11.5,79,0.00,CLR,OVC,0.00,WeatherDisplay:10.37,2013-08-15 14:02:00,
2013-08-15 10:03:00,66.2,59.5,30.02,SSW,203,8.0,10.4,79,0.00,CLR,OVC,0.00,WeatherDisplay:10.37,2013-08-15 14:03:00,
2013-08-15 10:04:00,66.3,59.9,30.02,South,191,6.4,8.1,80,0.00,CLR,OVC,0.00,WeatherDisplay:10.37,2013-08-15 14:04:00,
2013-08-15 10:06:00,66.4,59.7,30.02,SSW,200,7.8,11.5,79,0.00,CLR,OVC,0.00,WeatherDisplay:10.37,2013-08-15 14:06:00,
2013-08-15 10:07:00,66.5,59.4,30.02,South,190,8.8,11.5,78,0.00,CLR,OVC,0.00,WeatherDisplay:10.37,2013-08-15 14:07:00,
2013-08-15 10:08:00,66.5,59.4,30.03,South,182,7.8,11.5,78,0.00,CLR,OVC,0.00,WeatherDisplay:10.37,2013-08-15 14:08:00,
2013-08-15 10:09:00,66.6,59.9,30.02,South,183,8.7,11.5,79,0.00,CLR,OVC,0.00,WeatherDisplay:10.37,2013-08-15 14:09:00,
2013-08-15 10:11:00,66.7,59.6,30.02,South,174,9.9,11.5,78,0.00,CLR,OVC,0.00,WeatherDisplay:10.37,2013-08-15 14:11:00,
2013-08-15 10:14:00,66.8,59.7,30.03,South,176,7.5,15.0,78,0.00,CLR,OVC,0.00,WeatherDisplay:10.37,2013-08-15 14:14:00,
2013-08-15 10:16:00,66.8,59.7,30.02,South,188,6.2,9.2,78,0.00,CLR,OVC,0.00,WeatherDisplay:10.37,2013-08-15 14:16:00,
2013-08-15 10:19:00,67.0,60.3,30.02,SSW,200,7.4,11.5,79,0.00,CLR,OVC,0.00,WeatherDisplay:10.37,2013-08-15 14:19:00,
2013-08-15 10:21:00,67.0,60.3,30.02,SSW,192,8.9,12.7,79,0.00,CLR,OVC,0.00,WeatherDisplay:10.37,2013-08-15 14:21:00,
2013-08-15 10:22:00,67.1,60.0,30.03,South,175,8.1,12.7,78,0.00,CLR,OVC,0.00,WeatherDisplay:10.37,2013-08-15 14:22:00,
2013-08-15 10:24:00,67.3,60.2,30.03,South,185,9.1,11.5,78,0.00,CLR,OVC,0.00,WeatherDisplay:10.37,2013-08-15 14:24:00,
2013-08-15 10:25:00,67.4,60.3,30.03,SSW,201,9.2,11.5,78,0.00,CLR,OVC,0.00,WeatherDisplay:10.37,2013-08-15 14:25:00,
2013-08-15 10:26:00,67.4,59.9,30.02,SSW,201,7.5,12.7,77,0.00,CLR,OVC,0.00,WeatherDisplay:10.37,2013-08-15 14:26:00,
2013-08-15 10:27:00,67.4,60.3,30.02,SSW,212,8.0,11.5,78,0.00,CLR,OVC,0.00,WeatherDisplay:10.37,2013-08-15 14:27:00,
2013-08-15 10:29:00,67.6,60.5,30.03,SW,214,9.8,12.0,78,0.00,CLR,OVC,0.00,WeatherDisplay:10.37,2013-08-15 14:29:00,
2013-08-15 10:30:00,67.6,60.5,30.02,SSW,209,9.6,11.5,78,0.00,CLR,OVC,0.00,WeatherDisplay:10.37,2013-08-15 14:30:00,
2013-08-15 10:31:00,67.6,60.9,30.02,SSW,193,6.9,11.5,79,0.00,CLR,OVC,0.00,WeatherDisplay:10.37,2013-08-15 14:31:00,
2013-08-15 10:32:00,67.7,60.6,30.03,South,185,7.7,9.2,78,0.00,CLR,OVC,0.00,WeatherDisplay:10.37,2013-08-15 14:32:00,
2013-08-15 10:34:00,67.8,60.7,30.02,SSW,202,8.3,11.5,78,0.00,CLR,OVC,0.00,WeatherDisplay:10.37,2013-08-15 14:34:00,
2013-08-15 10:35:00,67.8,60.3,30.02,SSW,194,7.5,11.5,77,0.00,CLR,OVC,0.00,WeatherDisplay:10.37,2013-08-15 14:35:00,
2013-08-15 10:36:00,67.9,60.4,30.02,South,171,9.5,12.0,77,0.00,CLR,OVC,0.00,WeatherDisplay:10.37,2013-08-15 14:36:00,
2013-08-15 10:37:00,68.0,60.5,30.02,South,170,10.4,13.8,77,0.00,CLR,OVC,0.00,WeatherDisplay:10.37,2013-08-15 14:37:00,
2013-08-15 10:40:00,68.1,60.6,30.02,SSE,153,10.1,13.8,77,0.00,CLR,OVC,0.00,WeatherDisplay:10.37,2013-08-15 14:40:00,
2013-08-15 10:41:00,68.2,60.3,30.02,South,184,9.1,13.8,76,0.00,CLR,OVC,0.00,WeatherDisplay:10.37,2013-08-15 14:41:00,
2013-08-15 10:43:00,68.4,60.9,30.02,South,174,7.9,10.4,77,0.00,CLR,OVC,0.00,WeatherDisplay:10.37,2013-08-15 14:43:00,
2013-08-15 10:44:00,68.4,60.9,30.02,South,173,9.1,15.0,77,0.00,CLR,OVC,0.00,WeatherDisplay:10.37,2013-08-15 14:44:00,
2013-08-15 10:48:00,68.8,61.3,30.02,SSE,148,7.3,11.0,77,0.00,CLR,OVC,0.00,WeatherDisplay:10.37,2013-08-15 14:48:00,
2013-08-15 10:50:00,68.9,61.4,30.02,SE,133,7.9,11.5,77,0.00,CLR,OVC,0.00,WeatherDisplay:10.37,2013-08-15 14:50:00,
2013-08-15 10:53:00,69.3,61.4,30.02,South,180,8.8,11.5,76,0.00,CLR,OVC,0.00,WeatherDisplay:10.37,2013-08-15 14:53:00,
2013-08-15 10:55:00,69.3,61.4,30.02,SSE,163,7.8,11.5,76,0.00,CLR,OVC,0.00,WeatherDisplay:10.37,2013-08-15 14:55:00,
2013-08-15 10:58:00,69.6,61.3,30.02,SE,145,9.4,11.5,75,0.00,CLR,OVC,0.00,WeatherDisplay:10.37,2013-08-15 14:58:00,
2013-08-15 11:01:00,69.8,61.1,30.02,SSE,164,7.8,11.5,74,0.00,CLR,OVC,0.00,WeatherDisplay:10.37,2013-08-15 15:01:00,
2013-08-15 11:02:00,69.9,61.2,30.02,ESE,119,6.2,8.1,74,0.00,CLR,OVC,0.00,WeatherDisplay:10.37,2013-08-15 15:02:00,
2013-08-15 11:03:00,70.1,61.4,30.02,SE,146,8.6,13.0,74,0.00,CLR,OVC,0.00,WeatherDisplay:10.37,2013-08-15 15:03:00,
2013-08-15 11:04:00,70.1,61.0,30.02,ESE,119,11.6,16.0,73,0.00,CLR,OVC,0.00,WeatherDisplay:10.37,2013-08-15 15:04:00,
2013-08-15 11:06:00,70.2,60.7,30.02,SSE,162,7.5,15.0,72,0.00,CLR,OVC,0.00,WeatherDisplay:10.37,2013-08-15 15:06:00,
2013-08-15 11:07:00,70.3,60.8,30.02,SSE,167,7.8,10.4,72,0.00,CLR,OVC,0.00,WeatherDisplay:10.37,2013-08-15 15:07:00,
2013-08-15 11:08:00,70.4,60.9,30.02,SSW,196,5.5,11.5,72,0.00,CLR,OVC,0.00,WeatherDisplay:10.37,2013-08-15 15:08:00,
2013-08-15 11:09:00,70.4,60.9,30.02,SSW,199,7.0,12.0,72,0.00,CLR,OVC,0.00,WeatherDisplay:10.37,2013-08-15 15:09:00,
2013-08-15 11:11:00,70.6,61.1,30.02,SSE,166,4.0,6.9,72,0.00,CLR,OVC,0.00,WeatherDisplay:10.37,2013-08-15 15:11:00,
2013-08-15 11:13:00,70.8,61.7,30.02,SSE,148,5.8,9.2,73,0.00,CLR,OVC,0.00,WeatherDisplay:10.37,2013-08-15 15:13:00,
2013-08-15 11:14:00,70.9,61.4,30.02,SSE,164,7.0,12.0,72,0.00,CLR,OVC,0.00,WeatherDisplay:10.37,2013-08-15 15:14:00,
2013-08-15 11:16:00,71.1,61.2,30.02,South,183,7.1,10.4,71,0.00,CLR,OVC,0.00,WeatherDisplay:10.37,2013-08-15 15:16:00,
2013-08-15 11:17:00,71.1,60.4,30.02,SSW,200,8.1,10.4,69,0.00,CLR,OVC,0.00,WeatherDisplay:10.37,2013-08-15 15:17:00,
2013-08-15 11:18:00,71.1,60.8,30.02,SSW,202,7.3,10.4,70,0.00,CLR,OVC,0.00,WeatherDisplay:10.37,2013-08-15 15:18:00,
2013-08-15 11:19:00,71.0,60.3,30.01,SSW,199,4.8,10.4,69,0.00,CLR,OVC,0.00,WeatherDisplay:10.37,2013-08-15 15:19:00,
2013-08-15 11:21:00,71.0,60.3,30.02,SSW,202,6.8,8.0,69,0.00,CLR,OVC,0.00,WeatherDisplay:10.37,2013-08-15 15:21:00,
2013-08-15 11:23:00,71.0,60.3,30.02,South,178,6.3,11.5,69,0.00,CLR,OVC,0.00,WeatherDisplay:10.37,2013-08-15 15:23:00,
2013-08-15 11:25:00,71.0,60.3,30.02,SW,216,4.1,9.2,69,0.00,CLR,OVC,0.00,WeatherDisplay:10.37,2013-08-15 15:25:00,
2013-08-15 11:26:00,71.2,61.3,30.02,SSW,209,9.1,10.4,71,0.00,CLR,OVC,0.00,WeatherDisplay:10.37,2013-08-15 15:26:00,
2013-08-15 11:27:00,71.2,60.9,30.02,SSE,164,9.2,12.7,70,0.00,CLR,OVC,0.00,WeatherDisplay:10.37,2013-08-15 15:27:00,
2013-08-15 11:28:00,71.2,60.9,30.02,South,169,5.6,11.5,70,0.00,CLR,OVC,0.00,WeatherDisplay:10.37,2013-08-15 15:28:00,
2013-08-15 11:30:00,71.0,60.3,30.02,SW,226,9.9,11.5,69,0.00,CLR,OVC,0.00,WeatherDisplay:10.37,2013-08-15 15:30:00,
2013-08-15 11:32:00,70.8,60.1,30.02,SW,217,7.8,10.4,69,0.00,CLR,OVC,0.00,WeatherDisplay:10.37,2013-08-15 15:32:00,
2013-08-15 11:33:00,70.7,60.4,30.02,SW,232,7.7,12.0,70,0.00,CLR,OVC,0.00,WeatherDisplay:10.37,2013-08-15 15:33:00,
2013-08-15 11:35:00,70.7,60.4,30.02,SW,224,8.3,10.4,70,0.00,CLR,OVC,0.00,WeatherDisplay:10.37,2013-08-15 15:35:00,
2013-08-15 11:37:00,70.9,60.6,30.01,SW,228,6.2,9.2,70,0.00,CLR,OVC,0.00,WeatherDisplay:10.37,2013-08-15 15:37:00,
2013-08-15 11:38:00,71.0,60.7,30.01,SW,230,8.4,13.0,70,0.00,CLR,OVC,0.00,WeatherDisplay:10.37,2013-08-15 15:38:00,
2013-08-15 11:40:00,71.3,60.6,30.01,South,187,8.2,11.5,69,0.00,CLR,OVC,0.00,WeatherDisplay:10.37,2013-08-15 15:40:00,
2013-08-15 11:42:00,71.4,60.3,30.01,SSW,197,9.5,13.8,68,0.00,CLR,OVC,0.00,WeatherDisplay:10.37,2013-08-15 15:42:00,
2013-08-15 11:43:00,71.5,60.4,30.01,South,190,5.5,7.0,68,0.00,CLR,OVC,0.00,WeatherDisplay:10.37,2013-08-15 15:43:00,
2013-08-15 11:44:00,71.5,60.8,30.01,South,188,5.4,6.9,69,0.00,CLR,OVC,0.00,WeatherDisplay:10.37,2013-08-15 15:44:00,
2013-08-15 11:45:00,71.6,59.6,30.01,SSW,192,9.8,12.7,66,0.00,CLR,OVC,0.00,WeatherDisplay:10.37,2013-08-15 15:45:00,
2013-08-15 11:47:00,71.8,59.4,30.01,South,178,7.2,11.5,65,0.00,CLR,OVC,0.00,WeatherDisplay:10.37,2013-08-15 15:47:00,
2013-08-15 11:48:00,71.8,59.8,30.01,SSW,192,6.5,11.5,66,0.00,CLR,OVC,0.00,WeatherDisplay:10.37,2013-08-15 15:48:00,
2013-08-15 11:49:00,71.9,59.5,30.01,SW,218,7.7,11.5,65,0.00,CLR,OVC,0.00,WeatherDisplay:10.37,2013-08-15 15:49:00,
2013-08-15 11:51:00,72.0,60.0,30.01,SSW,207,4.0,6.0,66,0.00,CLR,OVC,0.00,WeatherDisplay:10.37,2013-08-15 15:51:00,
2013-08-15 11:52:00,72.1,60.1,30.01,SSW,192,4.9,7.0,66,0.00,CLR,OVC,0.00,WeatherDisplay:10.37,2013-08-15 15:52:00,
2013-08-15 11:53:00,72.1,60.1,30.01,SSW,211,8.5,11.5,66,0.00,CLR,OVC,0.00,WeatherDisplay:10.37,2013-08-15 15:53:00,
2013-08-15 11:54:00,72.2,59.8,30.01,South,182,10.1,13.8,65,0.00,CLR,OVC,0.00,WeatherDisplay:10.37,2013-08-15 15:54:00,
2013-08-15 11:55:00,72.3,59.9,30.01,South,171,8.1,13.8,65,0.00,CLR,OVC,0.00,WeatherDisplay:10.37,2013-08-15 15:55:00,
2013-08-15 11:57:00,72.4,60.4,30.01,South,186,7.1,10.0,66,0.00,CLR,OVC,0.00,WeatherDisplay:10.37,2013-08-15 15:57:00,
2013-08-15 11:58:00,72.5,59.6,30.01,South,175,7.4,10.4,64,0.00,CLR,OVC,0.00,WeatherDisplay:10.37,2013-08-15 15:58:00,
2013-08-15 11:59:00,72.5,59.6,30.01,SSW,194,9.2,11.5,64,0.00,CLR,OVC,0.00,WeatherDisplay:10.37,2013-08-15 15:59:00,
2013-08-15 12:03:00,72.7,59.8,30.01,SSW,212,6.9,11.5,64,0.00,CLR,OVC,0.00,WeatherDisplay:10.37,2013-08-15 16:03:00,
2013-08-15 12:04:00,72.8,60.3,30.01,WSW,243,7.8,12.7,65,0.00,CLR,OVC,0.00,WeatherDisplay:10.37,2013-08-15 16:04:00,
2013-08-15 12:05:00,72.8,60.3,30.01,WSW,242,8.2,12.7,65,0.00,CLR,OVC,0.00,WeatherDisplay:10.37,2013-08-15 16:05:00,
2013-08-15 12:08:00,73.1,60.6,30.01,SW,214,9.1,13.8,65,0.00,CLR,OVC,0.00,WeatherDisplay:10.37,2013-08-15 16:08:00,
2013-08-15 12:09:00,73.1,60.6,30.01,SSW,208,8.0,11.5,65,0.00,CLR,OVC,0.00,WeatherDisplay:10.37,2013-08-15 16:09:00,
2013-08-15 12:10:00,73.1,60.6,30.01,SW,215,5.0,8.1,65,0.00,CLR,OVC,0.00,WeatherDisplay:10.37,2013-08-15 16:10:00,
2013-08-15 12:13:00,72.8,59.9,30.01,South,183,7.2,12.7,64,0.00,CLR,OVC,0.00,WeatherDisplay:10.37,2013-08-15 16:13:00,
2013-08-15 12:14:00,72.8,59.9,30.01,South,179,6.7,10.4,64,0.00,CLR,OVC,0.00,WeatherDisplay:10.37,2013-08-15 16:14:00,
2013-08-15 12:16:00,72.7,60.3,30.00,SSW,195,4.8,8.1,65,0.00,CLR,OVC,0.00,WeatherDisplay:10.37,2013-08-15 16:16:00,
2013-08-15 12:19:00,73.0,61.0,30.01,South,173,10.2,13.8,66,0.00,CLR,OVC,0.00,WeatherDisplay:10.37,2013-08-15 16:19:00,
2013-08-15 12:21:00,73.5,61.0,30.01,SSW,210,9.2,13.8,65,0.00,CLR,OVC,0.00,WeatherDisplay:10.37,2013-08-15 16:21:00,
2013-08-15 12:24:00,73.7,60.8,30.01,South,189,8.1,11.5,64,0.00,CLR,OVC,0.00,WeatherDisplay:10.37,2013-08-15 16:24:00,
2013-08-15 12:26:00,73.8,60.9,30.00,SSW,202,4.3,7.0,64,0.00,CLR,OVC,0.00,WeatherDisplay:10.37,2013-08-15 16:26:00,
2013-08-15 12:29:00,73.9,61.0,30.01,SSW,194,10.3,12.7,64,0.00,CLR,OVC,0.00,WeatherDisplay:10.37,2013-08-15 16:29:00,
2013-08-15 12:30:00,73.9,60.5,30.01,South,182,8.3,11.5,63,0.00,CLR,OVC,0.00,WeatherDisplay:10.37,2013-08-15 16:30:00,
2013-08-15 12:31:00,73.8,60.4,30.01,South,177,9.1,11.5,63,0.00,CLR,OVC,0.00,WeatherDisplay:10.37,2013-08-15 16:31:00,
2013-08-15 12:32:00,73.8,60.4,30.01,South,184,6.6,11.5,63,0.00,CLR,OVC,0.00,WeatherDisplay:10.37,2013-08-15 16:32:00,
2013-08-15 12:34:00,73.7,60.3,30.01,SSW,201,7.6,10.4,63,0.00,CLR,OVC,0.00,WeatherDisplay:10.37,2013-08-15 16:34:00,
2013-08-15 12:35:00,73.8,60.4,30.01,South,179,8.3,11.5,63,0.00,CLR,OVC,0.00,WeatherDisplay:10.37,2013-08-15 16:35:00,
2013-08-15 12:36:00,73.7,59.9,30.01,South,184,7.8,10.4,62,0.00,CLR,OVC,0.00,WeatherDisplay:10.37,2013-08-15 16:36:00,
2013-08-15 12:37:00,73.5,59.7,30.00,South,183,5.8,11.5,62,0.00,CLR,OVC,0.00,WeatherDisplay:10.37,2013-08-15 16:37:00,
2013-08-15 12:39:00,73.4,59.1,30.01,South,186,6.5,11.5,61,0.00,CLR,OVC,0.00,WeatherDisplay:10.37,2013-08-15 16:39:00,
2013-08-15 12:40:00,73.3,59.0,30.01,South,173,8.1,11.5,61,0.00,CLR,OVC,0.00,WeatherDisplay:10.37,2013-08-15 16:40:00,
2013-08-15 12:41:00,73.2,58.9,30.00,South,181,10.0,12.7,61,0.00,CLR,OVC,0.00,WeatherDisplay:10.37,2013-08-15 16:41:00,
2013-08-15 12:43:00,73.0,59.7,30.01,South,190,8.2,13.0,63,0.00,CLR,OVC,0.00,WeatherDisplay:10.37,2013-08-15 16:43:00,
2013-08-15 12:44:00,73.0,59.7,30.00,SSW,206,8.9,12.7,63,0.00,CLR,OVC,0.00,WeatherDisplay:10.37,2013-08-15 16:44:00,
2013-08-15 12:45:00,72.9,59.6,30.00,South,186,9.2,11.5,63,0.00,CLR,OVC,0.00,WeatherDisplay:10.37,2013-08-15 16:45:00,
2013-08-15 12:46:00,72.7,58.9,30.00,South,184,7.6,11.5,62,0.00,CLR,OVC,0.00,WeatherDisplay:10.37,2013-08-15 16:46:00,
2013-08-15 12:48:00,72.5,59.2,30.00,South,186,7.6,10.4,63,0.00,CLR,OVC,0.00,WeatherDisplay:10.37,2013-08-15 16:48:00,
2013-08-15 12:49:00,72.4,59.1,30.00,South,189,5.6,9.2,63,0.00,CLR,OVC,0.00,WeatherDisplay:10.37,2013-08-15 16:49:00,
2013-08-15 12:51:00,72.3,59.4,30.00,SW,222,5.9,9.0,64,0.00,CLR,OVC,0.00,WeatherDisplay:10.37,2013-08-15 16:51:00,
2013-08-15 12:52:00,72.3,59.0,30.00,SW,234,8.4,11.5,63,0.00,CLR,OVC,0.00,WeatherDisplay:10.37,2013-08-15 16:52:00,
2013-08-15 12:53:00,72.2,59.3,30.00,SSW,213,6.7,9.2,64,0.00,CLR,OVC,0.00,WeatherDisplay:10.37,2013-08-15 16:53:00,
2013-08-15 12:54:00,72.2,60.2,30.00,SSW,213,3.6,9.2,66,0.00,CLR,OVC,0.00,WeatherDisplay:10.37,2013-08-15 16:54:00,
2013-08-15 12:56:00,72.3,60.7,30.00,WSW,242,4.2,7.0,67,0.00,CLR,OVC,0.00,WeatherDisplay:10.37,2013-08-15 16:56:00,
2013-08-15 12:57:00,72.4,60.4,30.00,WSW,243,4.8,4.8,66,0.00,CLR,OVC,0.00,WeatherDisplay:10.37,2013-08-15 16:57:00,
2013-08-15 12:59:00,72.7,60.3,30.00,SSW,213,7.9,12.7,65,0.00,CLR,OVC,0.00,WeatherDisplay:10.37,2013-08-15 16:59:00,
2013-08-15 13:01:00,73.3,60.4,30.00,SSW,209,8.0,11.5,64,0.00,CLR,OVC,0.00,WeatherDisplay:10.37,2013-08-15 17:01:00,
2013-08-15 13:02:00,73.3,60.8,30.00,SSW,198,8.2,10.4,65,0.00,CLR,OVC,0.00,WeatherDisplay:10.37,2013-08-15 17:02:00,
2013-08-15 13:04:00,73.8,60.4,30.00,South,190,9.5,12.7,63,0.00,CLR,OVC,0.00,WeatherDisplay:10.37,2013-08-15 17:04:00,
2013-08-15 13:06:00,74.0,59.2,30.00,SSW,200,7.8,10.0,60,0.00,CLR,OVC,0.00,WeatherDisplay:10.37,2013-08-15 17:06:00,
2013-08-15 13:07:00,74.0,59.2,30.00,South,189,7.8,11.5,60,0.00,CLR,OVC,0.00,WeatherDisplay:10.37,2013-08-15 17:07:00,
2013-08-15 13:08:00,73.9,59.1,30.00,SSW,203,5.4,10.4,60,0.00,CLR,OVC,0.00,WeatherDisplay:10.37,2013-08-15 17:08:00,
2013-08-15 13:09:00,73.8,59.0,30.00,SSW,204,5.5,6.9,60,0.00,CLR,OVC,0.00,WeatherDisplay:10.37,2013-08-15 17:09:00,
2013-08-15 13:12:00,73.5,58.8,29.99,SSW,204,3.2,4.6,60,0.00,CLR,OVC,0.00,WeatherDisplay:10.37,2013-08-15 17:12:00,
2013-08-15 13:13:00,73.5,59.2,29.99,SSW,204,1.8,3.5,61,0.00,CLR,OVC,0.00,WeatherDisplay:10.37,2013-08-15 17:13:00,
2013-08-15 13:14:00,73.4,60.0,29.99,SSW,204,2.6,5.0,63,0.00,CLR,OVC,0.00,WeatherDisplay:10.37,2013-08-15 17:14:00,
2013-08-15 13:15:00,73.3,59.5,30.00,SSW,212,4.6,6.0,62,0.00,CLR,OVC,0.00,WeatherDisplay:10.37,2013-08-15 17:15:00,
2013-08-15 13:17:00,73.2,60.3,29.99,SW,218,4.5,5.8,64,0.00,CLR,OVC,0.00,WeatherDisplay:10.37,2013-08-15 17:17:00,
2013-08-15 13:18:00,73.0,59.2,29.99,SW,218,4.3,5.8,62,0.00,CLR,OVC,0.00,WeatherDisplay:10.37,2013-08-15 17:18:00,
2013-08-15 13:19:00,73.1,59.3,29.99,SW,217,3.7,4.6,62,0.00,CLR,OVC,0.00,WeatherDisplay:10.37,2013-08-15 17:19:00,
2013-08-15 13:22:00,73.3,59.0,29.99,SW,218,2.0,3.5,61,0.00,CLR,OVC,0.00,WeatherDisplay:10.37,2013-08-15 17:22:00,
2013-08-15 13:24:00,73.4,58.7,29.99,SW,217,1.0,3.0,60,0.00,CLR,OVC,0.00,WeatherDisplay:10.37,2013-08-15 17:24:00,
2013-08-15 13:26:00,73.8,58.6,29.99,SW,218,2.2,5.0,59,0.00,CLR,OVC,0.00,WeatherDisplay:10.37,2013-08-15 17:26:00,
2013-08-15 13:27:00,73.8,58.6,29.99,SW,229,4.6,5.8,59,0.00,CLR,OVC,0.00,WeatherDisplay:10.37,2013-08-15 17:27:00,
2013-08-15 13:29:00,74.0,59.7,29.99,SW,229,4.0,5.8,61,0.00,CLR,OVC,0.00,WeatherDisplay:10.37,2013-08-15 17:29:00,
2013-08-15 13:33:00,74.7,59.4,29.99,SSW,204,6.3,7.0,59,0.00,CLR,OVC,0.00,WeatherDisplay:10.37,2013-08-15 17:33:00,
2013-08-15 13:35:00,74.9,58.6,29.99,SSW,209,5.2,5.8,57,0.00,CLR,OVC,0.00,WeatherDisplay:10.37,2013-08-15 17:35:00,
2013-08-15 13:39:00,74.9,59.6,29.99,SW,221,8.5,10.4,59,0.00,CLR,OVC,0.00,WeatherDisplay:10.37,2013-08-15 17:39:00,
2013-08-15 13:40:00,74.9,60.1,29.99,SW,223,10.0,12.7,60,0.00,CLR,OVC,0.00,WeatherDisplay:10.37,2013-08-15 17:40:00,
2013-08-15 13:46:00,75.6,60.3,29.99,SW,216,8.3,11.5,59,0.00,CLR,OVC,0.00,WeatherDisplay:10.37,2013-08-15 17:46:00,
2013-08-15 13:47:00,75.6,59.8,29.98,SW,226,8.6,11.5,58,0.00,CLR,OVC,0.00,WeatherDisplay:10.37,2013-08-15 17:47:00,
2013-08-15 13:51:00,75.0,59.2,29.98,WSW,255,6.6,10.4,58,0.00,CLR,OVC,0.00,WeatherDisplay:10.37,2013-08-15 17:51:00,
2013-08-15 13:52:00,74.8,59.5,29.98,WSW,248,7.9,9.2,59,0.00,CLR,OVC,0.00,WeatherDisplay:10.37,2013-08-15 17:52:00,
2013-08-15 13:53:00,74.7,59.4,29.98,SW,234,7.8,10.0,59,0.00,CLR,OVC,0.00,WeatherDisplay:10.37,2013-08-15 17:53:00,
2013-08-15 13:54:00,74.6,59.3,29.99,WSW,248,8.2,11.5,59,0.00,CLR,OVC,0.00,WeatherDisplay:10.37,2013-08-15 17:54:00,
2013-08-15 13:56:00,74.6,59.3,29.99,SW,225,8.0,9.2,59,0.00,CLR,OVC,0.00,WeatherDisplay:10.37,2013-08-15 17:56:00,
2013-08-15 13:57:00,74.6,58.4,29.99,WSW,238,6.7,11.5,57,0.00,CLR,OVC,0.00,WeatherDisplay:10.37,2013-08-15 17:57:00,
2013-08-15 13:59:00,74.5,58.3,29.98,SW,231,8.8,11.0,57,0.00,CLR,OVC,0.00,WeatherDisplay:10.37,2013-08-15 17:59:00,
2013-08-15 14:00:00,74.4,58.2,29.99,SW,232,9.5,10.4,57,0.00,CLR,OVC,0.00,WeatherDisplay:10.37,2013-08-15 18:00:00,
2013-08-15 14:01:00,74.2,58.5,29.99,SW,227,6.6,9.2,58,0.00,CLR,OVC,0.00,WeatherDisplay:10.37,2013-08-15 18:01:00,
2013-08-15 14:02:00,74.2,58.0,29.99,SW,227,6.5,9.2,57,0.00,CLR,OVC,0.00,WeatherDisplay:10.37,2013-08-15 18:02:00,
2013-08-15 14:04:00,74.1,59.3,29.99,SW,224,9.7,12.0,60,0.00,CLR,OVC,0.00,WeatherDisplay:10.37,2013-08-15 18:04:00,
2013-08-15 14:05:00,74.2,59.4,29.98,WSW,248,10.2,13.8,60,0.00,CLR,OVC,0.00,WeatherDisplay:10.37,2013-08-15 18:05:00,
2013-08-15 14:07:00,74.4,60.1,29.99,SW,232,8.4,12.7,61,0.00,CLR,OVC,0.00,WeatherDisplay:10.37,2013-08-15 18:07:00,
2013-08-15 14:08:00,74.7,61.3,29.98,SW,233,7.7,12.7,63,0.00,CLR,OVC,0.00,WeatherDisplay:10.37,2013-08-15 18:08:00,
2013-08-15 14:09:00,75.0,61.1,29.98,SW,229,8.5,10.4,62,0.00,CLR,OVC,0.00,WeatherDisplay:10.37,2013-08-15 18:09:00,
2013-08-15 14:10:00,75.1,61.2,29.98,WSW,244,7.7,10.4,62,0.00,CLR,OVC,0.00,WeatherDisplay:10.37,2013-08-15 18:10:00,
2013-08-15 14:12:00,75.3,58.5,29.98,WSW,239,4.7,5.8,56,0.00,CLR,OVC,0.00,WeatherDisplay:10.37,2013-08-15 18:12:00,
2013-08-15 14:14:00,75.3,59.0,29.98,West,269,6.9,9.2,57,0.00,CLR,OVC,0.00,WeatherDisplay:10.37,2013-08-15 18:14:00,
2013-08-15 14:15:00,75.2,58.9,29.98,West,263,4.1,8.1,57,0.00,CLR,OVC,0.00,WeatherDisplay:10.37,2013-08-15 18:15:00,
2013-08-15 14:17:00,75.0,58.7,29.98,West,265,4.4,7.0,57,0.00,CLR,OVC,0.00,WeatherDisplay:10.37,2013-08-15 18:17:00,
2013-08-15 14:19:00,74.9,59.1,29.98,WSW,257,5.0,9.0,58,0.00,CLR,OVC,0.00,WeatherDisplay:10.37,2013-08-15 18:19:00,
2013-08-15 14:23:00,75.0,59.2,29.98,SW,223,8.6,10.4,58,0.00,CLR,OVC,0.00,WeatherDisplay:10.37,2013-08-15 18:23:00,
2013-08-15 14:24:00,74.8,59.5,29.98,WSW,240,9.0,12.0,59,0.00,CLR,OVC,0.00,WeatherDisplay:10.37,2013-08-15 18:24:00,
2013-08-15 14:25:00,74.7,59.4,29.98,SW,230,8.4,11.5,59,0.00,CLR,OVC,0.00,WeatherDisplay:10.37,2013-08-15 18:25:00,
2013-08-15 14:27:00,74.5,59.7,29.98,West,273,6.9,9.2,60,0.00,CLR,OVC,0.00,WeatherDisplay:10.37,2013-08-15 18:27:00,
2013-08-15 14:28:00,74.6,60.3,29.98,West,273,4.9,10.4,61,0.00,CLR,OVC,0.00,WeatherDisplay:10.37,2013-08-15 18:28:00,
2013-08-15 14:30:00,74.9,59.6,29.98,SW,234,8.7,11.5,59,0.00,CLR,OVC,0.00,WeatherDisplay:10.37,2013-08-15 18:30:00,
2013-08-15 14:32:00,75.4,60.1,29.98,WSW,253,7.8,9.2,59,0.00,CLR,OVC,0.00,WeatherDisplay:10.37,2013-08-15 18:32:00,
2013-08-15 14:34:00,75.7,59.9,29.98,WSW,244,6.7,11.5,58,0.00,CLR,OVC,0.00,WeatherDisplay:10.37,2013-08-15 18:34:00,
2013-08-15 14:35:00,75.9,59.1,29.98,WSW,253,7.7,9.2,56,0.00,CLR,OVC,0.00,WeatherDisplay:10.37,2013-08-15 18:35:00,
2013-08-15 14:37:00,76.0,58.2,29.98,SW,233,9.3,11.5,54,0.00,CLR,OVC,0.00,WeatherDisplay:10.37,2013-08-15 18:37:00,
2013-08-15 14:38:00,75.9,58.1,29.98,SW,233,6.8,9.2,54,0.00,CLR,OVC,0.00,WeatherDisplay:10.37,2013-08-15 18:38:00,
2013-08-15 14:39:00,75.9,57.5,29.98,SW,233,6.3,9.2,53,0.00,CLR,OVC,0.00,WeatherDisplay:10.37,2013-08-15 18:39:00,
2013-08-15 14:40:00,75.8,57.4,29.98,SW,233,4.7,6.9,53,0.00,CLR,OVC,0.00,WeatherDisplay:10.37,2013-08-15 18:40:00,
2013-08-15 14:43:00,75.6,59.3,29.98,West,267,5.2,5.2,57,0.00,CLR,OVC,0.00,WeatherDisplay:10.37,2013-08-15 18:43:00,
2013-08-15 14:44:00,75.6,59.3,29.98,West,270,5.6,7.0,57,0.00,CLR,OVC,0.00,WeatherDisplay:10.37,2013-08-15 18:44:00,
2013-08-15 14:45:00,75.7,58.9,29.98,West,272,4.7,6.9,56,0.00,CLR,OVC,0.00,WeatherDisplay:10.37,2013-08-15 18:45:00,
2013-08-15 14:48:00,75.9,58.1,29.98,WSW,241,4.9,8.1,54,0.00,CLR,OVC,0.00,WeatherDisplay:10.37,2013-08-15 18:48:00,
2013-08-15 14:49:00,76.0,57.1,29.98,WSW,241,4.9,6.9,52,0.00,CLR,OVC,0.00,WeatherDisplay:10.37,2013-08-15 18:49:00,
2013-08-15 14:50:00,75.9,56.5,29.98,WSW,241,1.8,5.8,51,0.00,CLR,OVC,0.00,WeatherDisplay:10.37,2013-08-15 18:50:00,
2013-08-15 14:51:00,75.9,55.9,29.97,WSW,241,1.4,3.5,50,0.00,CLR,OVC,0.00,WeatherDisplay:10.37,2013-08-15 18:51:00,
2013-08-15 14:55:00,75.9,60.1,29.98,WSW,246,5.9,8.1,58,0.00,CLR,OVC,0.00,WeatherDisplay:10.37,2013-08-15 18:55:00,
2013-08-15 14:57:00,76.1,59.8,29.98,WSW,246,6.9,9.2,57,0.00,CLR,OVC,0.00,WeatherDisplay:10.37,2013-08-15 18:57:00,
2013-08-15 14:59:00,76.3,59.4,29.97,WSW,256,5.9,10.4,56,0.00,CLR,OVC,0.00,WeatherDisplay:10.37,2013-08-15 18:59:00,
2013-08-15 15:01:00,76.4,59.5,29.98,WSW,246,5.7,10.4,56,0.00,CLR,OVC,0.00,WeatherDisplay:10.37,2013-08-15 19:01:00,
2013-08-15 15:02:00,76.5,58.6,29.98,WSW,251,6.3,10.0,54,0.00,CLR,OVC,0.00,WeatherDisplay:10.37,2013-08-15 19:02:00,
2013-08-15 15:04:00,76.5,58.6,29.98,West,274,8.6,11.5,54,0.00,CLR,OVC,0.00,WeatherDisplay:10.37,2013-08-15 19:04:00,
2013-08-15 15:06:00,76.6,59.7,29.98,WNW,288,8.1,10.4,56,0.00,CLR,OVC,0.00,WeatherDisplay:10.37,2013-08-15 19:06:00,
2013-08-15 15:07:00,76.7,59.8,29.98,WNW,284,6.3,9.2,56,0.00,CLR,OVC,0.00,WeatherDisplay:10.37,2013-08-15 19:07:00,
2013-08-15 15:10:00,77.0,60.1,29.97,WNW,298,6.0,9.2,56,0.00,CLR,OVC,0.00,WeatherDisplay:10.37,2013-08-15 19:10:00,
2013-08-15 15:11:00,77.0,60.1,29.97,WNW,303,6.2,9.2,56,0.00,CLR,OVC,0.00,WeatherDisplay:10.37,2013-08-15 19:11:00,
2013-08-15 15:12:00,77.1,59.2,29.98,NNW,340,9.6,11.5,54,0.00,CLR,OVC,0.00,WeatherDisplay:10.37,2013-08-15 19:12:00,
2013-08-15 15:13:00,77.1,58.1,29.97,North,358,5.2,11.5,52,0.00,CLR,OVC,0.00,WeatherDisplay:10.37,2013-08-15 19:13:00,
2013-08-15 15:16:00,77.3,59.9,29.98,NNW,335,5.1,5.8,55,0.00,CLR,OVC,0.00,WeatherDisplay:10.37,2013-08-15 19:16:00,
2013-08-15 15:17:00,77.3,59.4,29.98,NNW,335,4.9,6.9,54,0.00,CLR,OVC,0.00,WeatherDisplay:10.37,2013-08-15 19:17:00,
2013-08-15 15:19:00,77.6,60.7,29.97,NW,323,5.2,8.0,56,0.00,CLR,OVC,0.00,WeatherDisplay:10.37,2013-08-15 19:19:00,
2013-08-15 15:23:00,77.7,59.2,29.97,WNW,288,7.2,10.4,53,0.00,CLR,OVC,0.00,WeatherDisplay:10.37,2013-08-15 19:23:00,
2013-08-15 15:26:00,77.2,58.7,29.97,WNW,293,5.8,8.1,53,0.00,CLR,OVC,0.00,WeatherDisplay:10.37,2013-08-15 19:26:00,
2013-08-15 15:27:00,77.0,57.5,29.97,WNW,293,4.7,6.9,51,0.00,CLR,OVC,0.00,WeatherDisplay:10.37,2013-08-15 19:27:00,
2013-08-15 15:31:00,76.4,58.0,29.98,WNW,293,3.0,5.8,53,0.00,CLR,OVC,0.00,WeatherDisplay:10.37,2013-08-15 19:31:00,
2013-08-15 15:32:00,76.3,57.9,29.98,WNW,293,2.4,3.5,53,0.00,CLR,OVC,0.00,WeatherDisplay:10.37,2013-08-15 19:32:00,
2013-08-15 15:36:00,76.1,58.8,29.97,NW,304,5.5,8.1,55,0.00,CLR,OVC,0.00,WeatherDisplay:10.37,2013-08-15 19:36:00,
2013-08-15 15:37:00,76.0,57.6,29.97,NW,304,4.5,6.9,53,0.00,CLR,OVC,0.00,WeatherDisplay:10.37,2013-08-15 19:37:00,
2013-08-15 15:38:00,76.0,59.2,29.97,NW,304,4.0,6.9,56,0.00,CLR,OVC,0.00,WeatherDisplay:10.37,2013-08-15 19:38:00,
2013-08-15 15:41:00,76.2,58.9,29.97,NW,304,4.7,5.8,55,0.00,CLR,OVC,0.00,WeatherDisplay:10.37,2013-08-15 19:41:00,
2013-08-15 15:42:00,76.2,58.9,29.97,NW,304,4.7,5.8,55,0.00,CLR,OVC,0.00,WeatherDisplay:10.37,2013-08-15 19:42:00,
2013-08-15 15:43:00,76.3,58.9,29.97,NW,304,3.7,5.8,55,0.00,CLR,OVC,0.00,WeatherDisplay:10.37,2013-08-15 19:43:00,
2013-08-15 15:47:00,76.4,61.5,29.97,NW,304,4.1,6.9,60,0.00,CLR,OVC,0.00,WeatherDisplay:10.37,2013-08-15 19:47:00,
2013-08-15 15:48:00,76.6,58.7,29.97,WNW,303,4.4,8.1,54,0.00,CLR,OVC,0.00,WeatherDisplay:10.37,2013-08-15 19:48:00,
2013-08-15 15:52:00,77.1,59.7,29.97,SW,234,10.1,17.3,55,0.00,CLR,OVC,0.00,WeatherDisplay:10.37,2013-08-15 19:52:00,
2013-08-15 15:53:00,77.2,59.3,29.97,WSW,243,7.2,13.8,54,0.00,CLR,OVC,0.00,WeatherDisplay:10.37,2013-08-15 19:53:00,
2013-08-15 15:57:00,77.4,60.0,29.97,WSW,257,6.2,8.1,55,0.00,CLR,OVC,0.00,WeatherDisplay:10.37,2013-08-15 19:57:00,
2013-08-15 15:59:00,77.5,59.0,29.97,WSW,257,4.8,8.1,53,0.00,CLR,OVC,0.00,WeatherDisplay:10.37,2013-08-15 19:59:00,
2013-08-15 16:04:00,77.8,58.2,29.97,WSW,257,1.6,4.6,51,0.00,CLR,OVC,0.00,WeatherDisplay:10.37,2013-08-15 20:04:00,
2013-08-15 16:06:00,77.9,59.9,29.97,WSW,257,5.1,8.1,54,0.00,CLR,OVC,0.00,WeatherDisplay:10.37,2013-08-15 20:06:00,
2013-08-15 16:09:00,77.9,60.4,29.97,WSW,253,6.0,8.0,55,0.00,CLR,OVC,0.00,WeatherDisplay:10.37,2013-08-15 20:09:00,
2013-08-15 16:10:00,77.7,59.7,29.97,SW,230,7.2,8.1,54,0.00,CLR,OVC,0.00,WeatherDisplay:10.37,2013-08-15 20:10:00,
2013-08-15 16:11:00,77.6,60.2,29.97,SW,226,6.3,9.2,55,0.00,CLR,OVC,0.00,WeatherDisplay:10.37,2013-08-15 20:11:00,
2013-08-15 16:12:00,77.6,60.7,29.97,WSW,241,6.9,10.4,56,0.00,CLR,OVC,0.00,WeatherDisplay:10.37,2013-08-15 20:12:00,
2013-08-15 16:15:00,77.4,60.0,29.97,WSW,240,7.9,10.4,55,0.00,CLR,OVC,0.00,WeatherDisplay:10.37,2013-08-15 20:15:00,
2013-08-15 16:16:00,77.4,59.5,29.97,WSW,250,7.6,9.2,54,0.00,CLR,OVC,0.00,WeatherDisplay:10.37,2013-08-15 20:16:00,
2013-08-15 16:17:00,77.4,59.5,29.97,WSW,252,7.9,9.2,54,0.00,CLR,OVC,0.00,WeatherDisplay:10.37,2013-08-15 20:17:00,
2013-08-15 16:21:00,77.1,59.2,29.97,West,262,6.7,9.2,54,0.00,CLR,OVC,0.00,WeatherDisplay:10.37,2013-08-15 20:21:00,
2013-08-15 16:22:00,76.9,58.5,29.97,West,262,5.0,8.1,53,0.00,CLR,OVC,0.00,WeatherDisplay:10.37,2013-08-15 20:22:00,
2013-08-15 16:24:00,76.6,58.7,29.97,West,262,2.4,5.8,54,0.00,CLR,OVC,0.00,WeatherDisplay:10.37,2013-08-15 20:24:00,
2013-08-15 16:25:00,76.5,58.6,29.97,West,262,2.6,3.5,54,0.00,CLR,OVC,0.00,WeatherDisplay:10.37,2013-08-15 20:25:00,
2013-08-15 16:26:00,76.5,59.6,29.97,West,262,2.7,4.0,56,0.00,CLR,OVC,0.00,WeatherDisplay:10.37,2013-08-15 20:26:00,
2013-08-15 16:27:00,76.5,59.6,29.97,SW,230,5.2,7.0,56,0.00,CLR,OVC,0.00,WeatherDisplay:10.37,2013-08-15 20:27:00,
2013-08-15 16:31:00,76.8,60.4,29.97,SW,225,3.9,5.8,57,0.00,CLR,OVC,0.00,WeatherDisplay:10.37,2013-08-15 20:31:00,
2013-08-15 16:32:00,76.8,59.4,29.97,SW,225,3.6,5.8,55,0.00,CLR,OVC,0.00,WeatherDisplay:10.37,2013-08-15 20:32:00,
2013-08-15 16:34:00,77.1,59.2,29.97,SW,234,5.0,6.9,54,0.00,CLR,OVC,0.00,WeatherDisplay:10.37,2013-08-15 20:34:00,
2013-08-15 16:36:00,77.1,58.6,29.97,SW,231,3.3,5.8,53,0.00,CLR,OVC,0.00,WeatherDisplay:10.37,2013-08-15 20:36:00,
2013-08-15 16:37:00,77.1,58.6,29.97,SW,231,2.7,4.6,53,0.00,CLR,OVC,0.00,WeatherDisplay:10.37,2013-08-15 20:37:00,
2013-08-15 16:38:00,77.2,59.8,29.97,SW,229,3.2,4.0,55,0.00,CLR,OVC,0.00,WeatherDisplay:10.37,2013-08-15 20:38:00,
2013-08-15 16:39:00,77.2,59.3,29.97,SW,214,5.3,6.9,54,0.00,CLR,OVC,0.00,WeatherDisplay:10.37,2013-08-15 20:39:00,
2013-08-15 16:41:00,77.3,59.4,29.97,SW,214,4.0,5.8,54,0.00,CLR,OVC,0.00,WeatherDisplay:10.37,2013-08-15 20:41:00,
2013-08-15 16:42:00,77.3,58.8,29.97,SW,214,3.5,4.6,53,0.00,CLR,OVC,0.00,WeatherDisplay:10.37,2013-08-15 20:42:00,
2013-08-15 16:43:00,77.3,58.8,29.97,SW,214,2.7,3.5,53,0.00,CLR,OVC,0.00,WeatherDisplay:10.37,2013-08-15 20:43:00,
2013-08-15 16:44:00,77.4,58.9,29.97,SW,215,1.7,4.0,53,0.00,CLR,OVC,0.00,WeatherDisplay:10.37,2013-08-15 20:44:00,
2013-08-15 16:46:00,77.4,58.4,29.97,WSW,258,4.8,6.0,52,0.00,CLR,OVC,0.00,WeatherDisplay:10.37,2013-08-15 20:46:00,
2013-08-15 16:47:00,77.4,60.0,29.96,West,264,7.2,8.1,55,0.00,CLR,OVC,0.00,WeatherDisplay:10.37,2013-08-15 20:47:00,
2013-08-15 16:48:00,77.4,58.9,29.97,West,264,5.4,9.2,53,0.00,CLR,OVC,0.00,WeatherDisplay:10.37,2013-08-15 20:48:00,
2013-08-15 16:50:00,77.2,58.7,29.97,West,264,5.4,6.9,53,0.00,CLR,OVC,0.00,WeatherDisplay:10.37,2013-08-15 20:50:00,
2013-08-15 16:51:00,77.1,60.2,29.97,West,264,4.4,5.8,56,0.00,CLR,OVC,0.00,WeatherDisplay:10.37,2013-08-15 20:51:00,
2013-08-15 16:52:00,77.1,59.7,29.97,West,264,4.3,5.8,55,0.00,CLR,OVC,0.00,WeatherDisplay:10.37,2013-08-15 20:52:00,
2013-08-15 16:53:00,77.0,59.1,29.96,West,264,4.3,5.8,54,0.00,CLR,OVC,0.00,WeatherDisplay:10.37,2013-08-15 20:53:00,
2013-08-15 16:55:00,76.8,58.9,29.96,West,264,4.9,5.8,54,0.00,CLR,OVC,0.00,WeatherDisplay:10.37,2013-08-15 20:55:00,
2013-08-15 16:58:00,76.9,60.5,29.96,WSW,241,4.8,6.9,57,0.00,CLR,OVC,0.00,WeatherDisplay:10.37,2013-08-15 20:58:00,
2013-08-15 17:03:00,77.2,59.8,29.96,WSW,242,2.7,4.0,55,0.00,CLR,OVC,0.00,WeatherDisplay:10.37,2013-08-15 21:03:00,
2013-08-15 17:04:00,77.3,60.4,29.96,WSW,242,3.9,4.6,56,0.00,CLR,OVC,0.00,WeatherDisplay:10.37,2013-08-15 21:04:00,
2013-08-15 17:05:00,77.4,60.5,29.96,WSW,243,4.4,5.8,56,0.00,CLR,OVC,0.00,WeatherDisplay:10.37,2013-08-15 21:05:00,
2013-08-15 17:08:00,77.6,59.1,29.96,WNW,282,6.7,11.5,53,0.00,CLR,OVC,0.00,WeatherDisplay:10.37,2013-08-15 21:08:00,
2013-08-15 17:09:00,77.7,59.2,29.96,West,281,6.6,9.2,53,0.00,CLR,OVC,0.00,WeatherDisplay:10.37,2013-08-15 21:09:00,
2013-08-15 17:11:00,77.7,59.2,29.96,West,280,4.9,6.9,53,0.00,CLR,OVC,0.00,WeatherDisplay:10.37,2013-08-15 21:11:00,
2013-08-15 17:14:00,77.6,60.2,29.96,WSW,254,5.4,8.1,55,0.00,CLR,OVC,0.00,WeatherDisplay:10.37,2013-08-15 21:14:00,
2013-08-15 17:15:00,77.7,59.7,29.96,WSW,255,5.6,8.1,54,0.00,CLR,OVC,0.00,WeatherDisplay:10.37,2013-08-15 21:15:00,
2013-08-15 17:16:00,77.5,59.5,29.96,WSW,256,6.9,9.2,54,0.00,CLR,OVC,0.00,WeatherDisplay:10.37,2013-08-15 21:16:00,
2013-08-15 17:18:00,77.3,58.3,29.96,WSW,256,5.0,5.8,52,0.00,CLR,OVC,0.00,WeatherDisplay:10.37,2013-08-15 21:18:00,
2013-08-15 17:19:00,77.2,58.2,29.96,WSW,256,4.0,5.8,52,0.00,CLR,OVC,0.00,WeatherDisplay:10.37,2013-08-15 21:19:00,
2013-08-15 17:20:00,77.2,58.2,29.96,WSW,256,4.0,4.6,52,0.00,CLR,OVC,0.00,WeatherDisplay:10.37,2013-08-15 21:20:00,
2013-08-15 17:21:00,77.2,59.3,29.96,WSW,256,4.4,5.8,54,0.00,CLR,OVC,0.00,WeatherDisplay:10.37,2013-08-15 21:21:00,
2013-08-15 17:24:00,77.3,57.8,29.96,WSW,245,3.5,4.6,51,0.00,CLR,OVC,0.00,WeatherDisplay:10.37,2013-08-15 21:24:00,
2013-08-15 17:25:00,77.3,58.8,29.97,WSW,244,3.4,5.0,53,0.00,CLR,OVC,0.00,WeatherDisplay:10.37,2013-08-15 21:25:00,
2013-08-15 17:30:00,77.5,59.5,29.96,WSW,245,3.8,4.6,54,0.00,CLR,OVC,0.00,WeatherDisplay:10.37,2013-08-15 21:30:00,
2013-08-15 17:32:00,77.6,59.6,29.96,WSW,245,4.5,5.8,54,0.00,CLR,OVC,0.00,WeatherDisplay:10.37,2013-08-15 21:32:00,
2013-08-15 17:35:00,77.7,59.2,29.96,WSW,245,4.9,8.1,53,0.00,CLR,OVC,0.00,WeatherDisplay:10.37,2013-08-15 21:35:00,
2013-08-15 17:36:00,77.7,60.2,29.96,SW,229,5.7,8.1,55,0.00,CLR,OVC,0.00,WeatherDisplay:10.37,2013-08-15 21:36:00,
2013-08-15 17:37:00,77.7,60.8,29.96,SW,229,7.3,8.1,56,0.00,CLR,OVC,0.00,WeatherDisplay:10.37,2013-08-15 21:37:00,
2013-08-15 17:40:00,77.6,60.2,29.96,SW,229,4.4,4.6,55,0.00,CLR,OVC,0.00,WeatherDisplay:10.37,2013-08-15 21:40:00,
2013-08-15 17:41:00,77.5,59.5,29.96,SW,229,4.6,4.6,54,0.00,CLR,OVC,0.00,WeatherDisplay:10.37,2013-08-15 21:41:00,
2013-08-15 17:42:00,77.5,59.5,29.96,SW,229,4.4,5.0,54,0.00,CLR,OVC,0.00,WeatherDisplay:10.37,2013-08-15 21:42:00,
2013-08-15 17:45:00,77.4,60.5,29.96,SW,229,2.9,4.0,56,0.00,CLR,OVC,0.00,WeatherDisplay:10.37,2013-08-15 21:45:00,
2013-08-15 17:47:00,77.4,59.5,29.96,SW,229,4.8,6.9,54,0.00,CLR,OVC,0.00,WeatherDisplay:10.37,2013-08-15 21:47:00,
2013-08-15 17:48:00,77.4,59.5,29.97,SW,229,4.6,6.9,54,0.00,CLR,OVC,0.00,WeatherDisplay:10.37,2013-08-15 21:48:00,
2013-08-15 17:50:00,77.4,60.0,29.96,SW,229,5.1,6.9,55,0.00,CLR,OVC,0.00,WeatherDisplay:10.37,2013-08-15 21:50:00,
2013-08-15 17:52:00,77.3,59.9,29.96,SW,229,4.8,5.8,55,0.00,CLR,OVC,0.00,WeatherDisplay:10.37,2013-08-15 21:52:00,
2013-08-15 17:53:00,77.3,59.9,29.96,SW,229,3.9,5.8,55,0.00,CLR,OVC,0.00,WeatherDisplay:10.37,2013-08-15 21:53:00,
2013-08-15 17:56:00,77.1,60.7,29.96,SW,229,3.8,4.6,57,0.00,CLR,OVC,0.00,WeatherDisplay:10.37,2013-08-15 21:56:00,
2013-08-15 17:57:00,77.1,60.7,29.97,SW,229,4.8,5.0,57,0.00,CLR,OVC,0.00,WeatherDisplay:10.37,2013-08-15 21:57:00,
2013-08-15 17:58:00,77.1,61.7,29.97,SW,229,4.6,6.9,59,0.00,CLR,OVC,0.00,WeatherDisplay:10.37,2013-08-15 21:58:00,
2013-08-15 18:01:00,77.0,59.1,29.97,SW,229,5.2,6.0,54,0.00,CLR,OVC,0.00,WeatherDisplay:10.37,2013-08-15 22:01:00,
2013-08-15 18:04:00,76.9,60.0,29.97,SW,229,2.9,4.6,56,0.00,CLR,OVC,0.00,WeatherDisplay:10.37,2013-08-15 22:04:00,
2013-08-15 18:06:00,76.8,60.9,29.97,SW,229,3.1,6.0,58,0.00,CLR,OVC,0.00,WeatherDisplay:10.37,2013-08-15 22:06:00,
2013-08-15 18:07:00,76.7,59.8,29.97,SW,229,4.1,5.8,56,0.00,CLR,OVC,0.00,WeatherDisplay:10.37,2013-08-15 22:07:00,
2013-08-15 18:09:00,76.5,58.6,29.97,SW,230,5.9,6.9,54,0.00,CLR,OVC,0.00,WeatherDisplay:10.37,2013-08-15 22:09:00,
2013-08-15 18:10:00,76.5,59.1,29.97,SW,230,5.8,8.1,55,0.00,CLR,OVC,0.00,WeatherDisplay:10.37,2013-08-15 22:10:00,
2013-08-15 18:11:00,76.4,58.5,29.98,SW,236,5.5,8.1,54,0.00,CLR,OVC,0.00,WeatherDisplay:10.37,2013-08-15 22:11:00,
2013-08-15 18:12:00,76.3,58.4,29.97,SW,236,4.5,6.9,54,0.00,CLR,OVC,0.00,WeatherDisplay:10.37,2013-08-15 22:12:00,
2013-08-15 18:15:00,76.2,60.8,29.97,SW,236,4.4,6.0,59,0.00,CLR,OVC,0.00,WeatherDisplay:10.37,2013-08-15 22:15:00,
2013-08-15 18:16:00,76.2,60.8,29.97,SW,236,4.6,5.8,59,0.00,CLR,OVC,0.00,WeatherDisplay:10.37,2013-08-15 22:16:00,
2013-08-15 18:17:00,76.1,61.2,29.97,SW,236,5.1,6.0,60,0.00,CLR,OVC,0.00,WeatherDisplay:10.37,2013-08-15 22:17:00,
2013-08-15 18:20:00,75.4,61.0,29.97,SW,234,5.2,8.0,61,0.00,CLR,OVC,0.00,WeatherDisplay:10.37,2013-08-15 22:20:00,
2013-08-15 18:21:00,75.4,61.0,29.97,SW,228,5.3,8.1,61,0.00,CLR,OVC,0.00,WeatherDisplay:10.37,2013-08-15 22:21:00,
2013-08-15 18:22:00,75.2,59.9,29.97,SW,229,7.6,10.4,59,0.00,CLR,OVC,0.00,WeatherDisplay:10.37,2013-08-15 22:22:00,
2013-08-15 18:25:00,74.6,58.4,29.97,SW,229,6.1,8.1,57,0.00,CLR,OVC,0.00,WeatherDisplay:10.37,2013-08-15 22:25:00,
2013-08-15 18:26:00,74.5,58.3,29.97,SW,229,6.0,8.1,57,0.00,CLR,OVC,0.00,WeatherDisplay:10.37,2013-08-15 22:26:00,
2013-08-15 18:27:00,74.3,58.1,29.97,SW,230,5.2,8.0,57,0.00,CLR,OVC,0.00,WeatherDisplay:10.37,2013-08-15 22:27:00,
2013-08-15 18:30:00,74.0,57.8,29.97,WSW,239,4.7,5.8,57,0.00,CLR,OVC,0.00,WeatherDisplay:10.37,2013-08-15 22:30:00,
2013-08-15 18:31:00,74.0,58.3,29.97,WSW,239,3.9,5.8,58,0.00,CLR,OVC,0.00,WeatherDisplay:10.37,2013-08-15 22:31:00,
2013-08-15 18:32:00,73.9,58.2,29.97,WSW,239,3.8,5.0,58,0.00,CLR,OVC,0.00,WeatherDisplay:10.37,2013-08-15 22:32:00,
2013-08-15 18:35:00,73.7,58.5,29.97,WSW,239,2.7,4.0,59,0.00,CLR,OVC,0.00,WeatherDisplay:10.37,2013-08-15 22:35:00,
2013-08-15 18:37:00,73.6,58.9,29.97,WSW,239,3.7,4.6,60,0.00,CLR,OVC,0.00,WeatherDisplay:10.37,2013-08-15 22:37:00,
2013-08-15 18:38:00,73.6,58.9,29.97,WSW,239,3.4,4.0,60,0.00,CLR,OVC,0.00,WeatherDisplay:10.37,2013-08-15 22:38:00,
2013-08-15 18:41:00,73.4,59.1,29.97,WSW,239,3.7,5.0,61,0.00,CLR,OVC,0.00,WeatherDisplay:10.37,2013-08-15 22:41:00,
2013-08-15 18:42:00,73.3,59.5,29.97,WSW,239,3.8,4.6,62,0.00,CLR,OVC,0.00,WeatherDisplay:10.37,2013-08-15 22:42:00,
2013-08-15 18:43:00,73.2,59.4,29.98,WSW,239,3.9,4.0,62,0.00,CLR,OVC,0.00,WeatherDisplay:10.37,2013-08-15 22:43:00,
2013-08-15 18:46:00,73.0,59.2,29.97,WSW,239,3.5,5.8,62,0.00,CLR,OVC,0.00,WeatherDisplay:10.37,2013-08-15 22:46:00,
2013-08-15 18:47:00,72.9,59.6,29.97,WSW,239,2.9,5.0,63,0.00,CLR,OVC,0.00,WeatherDisplay:10.37,2013-08-15 22:47:00,
2013-08-15 18:48:00,72.8,59.5,29.97,WSW,239,3.9,5.8,63,0.00,CLR,OVC,0.00,WeatherDisplay:10.37,2013-08-15 22:48:00,
2013-08-15 18:49:00,72.8,59.5,29.97,WSW,243,4.1,6.9,63,0.00,CLR,OVC,0.00,WeatherDisplay:10.37,2013-08-15 22:49:00,
2013-08-15 18:51:00,72.9,60.0,29.97,WSW,243,3.1,4.6,64,0.00,CLR,OVC,0.00,WeatherDisplay:10.37,2013-08-15 22:51:00,
2013-08-15 18:52:00,72.9,60.4,29.97,WSW,243,2.5,4.0,65,0.00,CLR,OVC,0.00,WeatherDisplay:10.37,2013-08-15 22:52:00,
2013-08-15 18:53:00,73.0,61.0,29.98,WSW,243,2.5,3.5,66,0.00,CLR,OVC,0.00,WeatherDisplay:10.37,2013-08-15 22:53:00,
2013-08-15 18:54:00,73.0,61.4,29.98,WSW,242,2.0,5.0,67,0.00,CLR,OVC,0.00,WeatherDisplay:10.37,2013-08-15 22:54:00,
2013-08-15 18:56:00,73.1,61.5,29.98,WSW,243,2.4,3.5,67,0.00,CLR,OVC,0.00,WeatherDisplay:10.37,2013-08-15 22:56:00,
2013-08-15 18:57:00,73.2,61.6,29.98,WSW,243,2.1,3.5,67,0.00,CLR,OVC,0.00,WeatherDisplay:10.37,2013-08-15 22:57:00,
2013-08-15 18:58:00,73.2,61.6,29.98,WSW,243,1.5,3.5,67,0.00,CLR,OVC,0.00,WeatherDisplay:10.37,2013-08-15 22:58:00,
2013-08-15 19:00:00,73.2,62.0,29.98,WSW,243,2.1,2.3,68,0.00,CLR,OVC,0.00,WeatherDisplay:10.37,2013-08-15 23:00:00,
2013-08-15 19:01:00,73.2,62.0,29.98,WSW,243,2.4,3.5,68,0.00,CLR,OVC,0.00,WeatherDisplay:10.37,2013-08-15 23:01:00,
2013-08-15 19:02:00,73.2,62.0,29.98,WSW,243,2.1,3.5,68,0.00,CLR,OVC,0.00,WeatherDisplay:10.37,2013-08-15 23:02:00,
2013-08-15 19:03:00,73.2,62.0,29.98,WSW,243,1.7,3.5,68,0.00,CLR,OVC,0.00,WeatherDisplay:10.37,2013-08-15 23:03:00,
2013-08-15 19:04:00,73.2,62.0,29.98,WSW,243,1.8,4.0,68,0.00,CLR,OVC,0.00,WeatherDisplay:10.37,2013-08-15 23:04:00,
2013-08-15 19:05:00,73.2,61.6,29.98,WSW,243,2.6,5.0,67,0.00,CLR,OVC,0.00,WeatherDisplay:10.37,2013-08-15 23:05:00,
2013-08-15 19:07:00,73.3,61.3,29.98,WSW,243,2.2,4.0,66,0.00,CLR,OVC,0.00,WeatherDisplay:10.37,2013-08-15 23:07:00,
2013-08-15 19:08:00,73.3,60.8,29.98,WSW,243,3.1,5.0,65,0.00,CLR,OVC,0.00,WeatherDisplay:10.37,2013-08-15 23:08:00,
2013-08-15 19:09:00,73.3,60.4,29.98,WSW,243,3.4,4.6,64,0.00,CLR,OVC,0.00,WeatherDisplay:10.37,2013-08-15 23:09:00,
2013-08-15 19:10:00,73.4,60.5,29.98,WSW,243,2.8,3.5,64,0.00,CLR,OVC,0.00,WeatherDisplay:10.37,2013-08-15 23:10:00,
2013-08-15 19:13:00,73.4,60.0,29.98,WSW,243,1.6,3.5,63,0.00,CLR,OVC,0.00,WeatherDisplay:10.37,2013-08-15 23:13:00,
2013-08-15 19:14:00,73.5,60.1,29.98,WSW,243,2.0,3.0,63,0.00,CLR,OVC,0.00,WeatherDisplay:10.37,2013-08-15 23:14:00,
2013-08-15 19:15:00,73.5,60.1,29.98,WSW,243,1.4,3.5,63,0.00,CLR,OVC,0.00,WeatherDisplay:10.37,2013-08-15 23:15:00,
2013-08-15 19:18:00,73.5,60.1,29.98,WSW,243,1.1,2.3,63,0.00,CLR,OVC,0.00,WeatherDisplay:10.37,2013-08-15 23:18:00,
2013-08-15 19:19:00,73.5,60.6,29.99,WSW,243,1.6,3.5,64,0.00,CLR,OVC,0.00,WeatherDisplay:10.37,2013-08-15 23:19:00,
2013-08-15 19:20:00,73.5,60.6,29.98,WSW,243,1.6,3.5,64,0.00,CLR,OVC,0.00,WeatherDisplay:10.37,2013-08-15 23:20:00,
2013-08-15 19:23:00,73.4,60.9,29.98,WSW,243,1.4,3.5,65,0.00,CLR,OVC,0.00,WeatherDisplay:10.37,2013-08-15 23:23:00,
2013-08-15 19:25:00,73.4,61.3,29.99,WSW,243,2.2,3.5,66,0.00,CLR,OVC,0.00,WeatherDisplay:10.37,2013-08-15 23:25:00,
2013-08-15 19:28:00,73.1,61.5,29.98,WSW,243,1.7,3.5,67,0.00,CLR,OVC,0.00,WeatherDisplay:10.37,2013-08-15 23:28:00,
2013-08-15 19:29:00,73.1,61.5,29.98,WSW,243,1.4,3.5,67,0.00,CLR,OVC,0.00,WeatherDisplay:10.37,2013-08-15 23:29:00,
2013-08-15 19:30:00,73.0,61.8,29.99,WSW,243,1.3,3.5,68,0.00,CLR,OVC,0.00,WeatherDisplay:10.37,2013-08-15 23:30:00,
2013-08-15 19:32:00,72.8,62.0,29.99,WSW,243,2.9,3.5,69,0.00,CLR,OVC,0.00,WeatherDisplay:10.37,2013-08-15 23:32:00,
2013-08-15 19:34:00,72.5,61.7,29.99,WSW,243,2.8,3.5,69,0.00,CLR,OVC,0.00,WeatherDisplay:10.37,2013-08-15 23:34:00,
2013-08-15 19:35:00,72.4,61.7,29.99,WSW,243,3.1,3.5,69,0.00,CLR,OVC,0.00,WeatherDisplay:10.37,2013-08-15 23:35:00,
2013-08-15 19:36:00,72.3,61.1,29.99,WSW,243,3.2,3.5,68,0.00,CLR,OVC,0.00,WeatherDisplay:10.37,2013-08-15 23:36:00,
2013-08-15 19:37:00,72.1,61.0,29.99,WSW,243,2.3,3.5,68,0.00,CLR,OVC,0.00,WeatherDisplay:10.37,2013-08-15 23:37:00,
2013-08-15 19:39:00,71.8,60.7,29.99,WSW,243,2.5,3.5,68,0.00,CLR,OVC,0.00,WeatherDisplay:10.37,2013-08-15 23:39:00,
2013-08-15 19:40:00,71.8,60.7,29.99,WSW,243,2.3,3.5,68,0.00,CLR,OVC,0.00,WeatherDisplay:10.37,2013-08-15 23:40:00,
2013-08-15 19:41:00,71.7,60.6,29.99,WSW,243,2.8,3.5,68,0.00,CLR,OVC,0.00,WeatherDisplay:10.37,2013-08-15 23:41:00,
2013-08-15 19:42:00,71.5,60.8,29.99,WSW,243,1.7,4.6,69,0.00,CLR,OVC,0.00,WeatherDisplay:10.37,2013-08-15 23:42:00,
2013-08-15 19:44:00,71.3,61.0,29.99,WSW,243,2.1,3.5,70,0.00,CLR,OVC,0.00,WeatherDisplay:10.37,2013-08-15 23:44:00,
2013-08-15 19:45:00,71.3,61.0,29.99,WSW,243,2.1,3.5,70,0.00,CLR,OVC,0.00,WeatherDisplay:10.37,2013-08-15 23:45:00,
2013-08-15 19:46:00,71.2,60.5,29.99,WSW,243,2.5,3.5,69,0.00,CLR,OVC,0.00,WeatherDisplay:10.37,2013-08-15 23:46:00,
2013-08-15 19:47:00,71.1,60.4,29.99,WSW,243,3.2,5.0,69,0.00,CLR,OVC,0.00,WeatherDisplay:10.37,2013-08-15 23:47:00,
2013-08-15 19:49:00,70.8,60.1,29.99,SW,227,3.8,4.6,69,0.00,CLR,OVC,0.00,WeatherDisplay:10.37,2013-08-15 23:49:00,
2013-08-15 19:50:00,70.8,60.1,29.99,SW,227,3.6,4.0,69,0.00,CLR,OVC,0.00,WeatherDisplay:10.37,2013-08-15 23:50:00,
2013-08-15 19:51:00,70.6,59.9,29.99,SW,226,3.9,4.0,69,0.00,CLR,OVC,0.00,WeatherDisplay:10.37,2013-08-15 23:51:00,
2013-08-15 19:52:00,70.4,59.7,29.99,SW,222,4.4,4.6,69,0.00,CLR,OVC,0.00,WeatherDisplay:10.37,2013-08-15 23:52:00,
2013-08-15 19:54:00,70.2,59.9,29.99,SW,228,3.0,5.0,70,0.00,CLR,OVC,0.00,WeatherDisplay:10.37,2013-08-15 23:54:00,
2013-08-15 19:55:00,70.1,60.3,30.00,SW,219,4.1,4.6,71,0.00,CLR,OVC,0.00,WeatherDisplay:10.37,2013-08-15 23:55:00,
2013-08-15 19:56:00,69.8,60.0,30.00,SW,219,3.9,4.6,71,0.00,CLR,OVC,0.00,WeatherDisplay:10.37,2013-08-15 23:56:00,
2013-08-15 19:58:00,69.6,60.2,30.00,SW,218,4.2,5.0,72,0.00,CLR,OVC,0.00,WeatherDisplay:10.37,2013-08-15 23:58:00,
2013-08-15 20:00:00,69.1,59.7,30.00,SW,215,4.6,4.6,72,0.00,CLR,OVC,0.00,WeatherDisplay:10.37,2013-08-16 00:00:00,
2013-08-15 20:03:00,68.5,59.5,30.00,SSW,211,4.5,5.0,73,0.00,CLR,OVC,0.00,WeatherDisplay:10.37,2013-08-16 00:03:00,
2013-08-15 20:04:00,68.5,59.5,30.00,SSW,211,4.5,4.6,73,0.00,CLR,OVC,0.00,WeatherDisplay:10.37,2013-08-16 00:04:00,
2013-08-15 20:05:00,68.2,59.2,30.00,SSW,210,4.6,5.0,73,0.00,CLR,OVC,0.00,WeatherDisplay:10.37,2013-08-16 00:05:00,
2013-08-15 20:06:00,68.1,59.1,30.00,SSW,209,4.8,5.0,73,0.00,CLR,OVC,0.00,WeatherDisplay:10.37,2013-08-16 00:06:00,
2013-08-15 20:07:00,67.9,58.9,30.00,SSW,208,4.6,4.6,73,0.00,CLR,OVC,0.00,WeatherDisplay:10.37,2013-08-16 00:07:00,
2013-08-15 20:09:00,67.7,59.1,30.00,SSW,207,4.4,5.0,74,0.00,CLR,OVC,0.00,WeatherDisplay:10.37,2013-08-16 00:09:00,
2013-08-15 20:11:00,67.4,58.8,30.00,SSW,206,4.5,5.0,74,0.00,CLR,OVC,0.00,WeatherDisplay:10.37,2013-08-16 00:11:00,
2013-08-15 20:12:00,67.2,59.0,30.00,SSW,205,4.5,5.0,75,0.00,CLR,OVC,0.00,WeatherDisplay:10.37,2013-08-16 00:12:00,
2013-08-15 20:14:00,67.0,58.8,30.00,SSW,204,4.8,5.8,75,0.00,CLR,OVC,0.00,WeatherDisplay:10.37,2013-08-16 00:14:00,
2013-08-15 20:16:00,66.7,58.5,30.00,SSW,203,4.4,5.0,75,0.00,CLR,OVC,0.00,WeatherDisplay:10.37,2013-08-16 00:16:00,
2013-08-15 20:17:00,66.6,58.8,30.00,SSW,201,4.5,5.8,76,0.00,CLR,OVC,0.00,WeatherDisplay:10.37,2013-08-16 00:17:00,
2013-08-15 20:19:00,66.4,58.6,30.00,SSW,201,4.2,4.6,76,0.00,CLR,OVC,0.00,WeatherDisplay:10.37,2013-08-16 00:19:00,
2013-08-15 20:21:00,66.2,58.4,30.00,SSW,201,4.2,4.6,76,0.00,CLR,OVC,0.00,WeatherDisplay:10.37,2013-08-16 00:21:00,
2013-08-15 20:22:00,66.0,58.2,30.00,SSW,201,4.7,5.8,76,0.00,CLR,OVC,0.00,WeatherDisplay:10.37,2013-08-16 00:22:00,
2013-08-15 20:24:00,65.9,58.5,30.00,SSW,199,5.0,5.8,77,0.00,CLR,OVC,0.00,WeatherDisplay:10.37,2013-08-16 00:24:00,
2013-08-15 20:25:00,65.8,58.0,30.00,SSW,198,5.1,5.8,76,0.00,CLR,OVC,0.00,WeatherDisplay:10.37,2013-08-16 00:25:00,
2013-08-15 20:26:00,65.6,58.2,30.01,SSW,198,4.5,5.8,77,0.00,CLR,OVC,0.00,WeatherDisplay:10.37,2013-08-16 00:26:00,
2013-08-15 20:27:00,65.6,58.2,30.00,SSW,198,4.6,5.0,77,0.00,CLR,OVC,0.00,WeatherDisplay:10.37,2013-08-16 00:27:00,
2013-08-15 20:28:00,65.5,58.1,30.00,SSW,198,5.0,5.0,77,0.00,CLR,OVC,0.00,WeatherDisplay:10.37,2013-08-16 00:28:00,
2013-08-15 20:29:00,65.4,58.0,30.00,SSW,196,5.3,5.8,77,0.00,CLR,OVC,0.00,WeatherDisplay:10.37,2013-08-16 00:29:00,
2013-08-15 20:30:00,65.3,58.3,30.00,SSW,195,5.1,5.8,78,0.00,CLR,OVC,0.00,WeatherDisplay:10.37,2013-08-16 00:30:00,
2013-08-15 20:32:00,65.1,58.1,30.01,SSW,194,4.8,5.8,78,0.00,CLR,OVC,0.00,WeatherDisplay:10.37,2013-08-16 00:32:00,
2013-08-15 20:34:00,64.9,57.9,30.01,SSW,193,5.1,6.0,78,0.00,CLR,OVC,0.00,WeatherDisplay:10.37,2013-08-16 00:34:00,
2013-08-15 20:35:00,64.9,58.2,30.01,South,191,5.3,5.8,79,0.00,CLR,OVC,0.00,WeatherDisplay:10.37,2013-08-16 00:35:00,
2013-08-15 20:37:00,64.7,58.0,30.01,South,190,5.4,5.8,79,0.00,CLR,OVC,0.00,WeatherDisplay:10.37,2013-08-16 00:37:00,
2013-08-15 20:38:00,64.6,57.9,30.01,South,189,4.8,5.8,79,0.00,CLR,OVC,0.00,WeatherDisplay:10.37,2013-08-16 00:38:00,
2013-08-15 20:39:00,64.5,57.8,30.01,South,189,5.1,6.0,79,0.00,CLR,OVC,0.00,WeatherDisplay:10.37,2013-08-16 00:39:00,
2013-08-15 20:40:00,64.4,57.7,30.01,South,189,5.0,5.8,79,0.00,CLR,OVC,0.00,WeatherDisplay:10.37,2013-08-16 00:40:00,
2013-08-15 20:43:00,64.3,57.6,30.01,South,189,4.8,5.8,79,0.00,CLR,OVC,0.00,WeatherDisplay:10.37,2013-08-16 00:43:00,
2013-08-15 20:44:00,64.2,57.5,30.01,South,189,4.8,4.8,79,0.00,CLR,OVC,0.00,WeatherDisplay:10.37,2013-08-16 00:44:00,
2013-08-15 20:45:00,64.1,57.5,30.01,South,189,4.8,5.0,79,0.00,CLR,OVC,0.00,WeatherDisplay:10.37,2013-08-16 00:45:00,
2013-08-15 20:46:00,64.1,57.5,30.01,South,189,4.8,5.0,79,0.00,CLR,OVC,0.00,WeatherDisplay:10.37,2013-08-16 00:46:00,
2013-08-15 20:48:00,64.0,57.4,30.01,South,188,4.8,5.8,79,0.00,CLR,OVC,0.00,WeatherDisplay:10.37,2013-08-16 00:48:00,
2013-08-15 20:49:00,64.0,57.0,30.01,South,188,4.8,6.0,78,0.00,CLR,OVC,0.00,WeatherDisplay:10.37,2013-08-16 00:49:00,
2013-08-15 20:50:00,63.9,57.3,30.01,South,188,5.1,6.0,79,0.00,CLR,OVC,0.00,WeatherDisplay:10.37,2013-08-16 00:50:00,
2013-08-15 20:51:00,63.9,57.3,30.01,South,184,5.4,6.0,79,0.00,CLR,OVC,0.00,WeatherDisplay:10.37,2013-08-16 00:51:00,
2013-08-15 20:53:00,63.9,57.3,30.01,South,183,5.5,5.8,79,0.00,CLR,OVC,0.00,WeatherDisplay:10.37,2013-08-16 00:53:00,
2013-08-15 20:54:00,63.9,57.3,30.01,South,186,6.0,7.0,79,0.00,CLR,OVC,0.00,WeatherDisplay:10.37,2013-08-16 00:54:00,
2013-08-15 20:56:00,63.8,56.8,30.01,South,181,5.4,6.0,78,0.00,CLR,OVC,0.00,WeatherDisplay:10.37,2013-08-16 00:56:00,
2013-08-15 20:58:00,63.7,57.1,30.02,South,182,4.7,5.8,79,0.00,CLR,OVC,0.00,WeatherDisplay:10.37,2013-08-16 00:58:00,
2013-08-15 20:59:00,63.7,56.7,30.02,South,181,4.8,5.0,78,0.00,CLR,OVC,0.00,WeatherDisplay:10.37,2013-08-16 00:59:00,
2013-08-15 21:01:00,63.6,57.0,30.02,South,181,5.2,5.8,79,0.00,CLR,OVC,0.00,WeatherDisplay:10.37,2013-08-16 01:01:00,
2013-08-15 21:02:00,63.6,56.6,30.02,South,181,5.1,5.8,78,0.00,CLR,OVC,0.00,WeatherDisplay:10.37,2013-08-16 01:02:00,
2013-08-15 21:05:00,63.5,56.5,30.02,South,181,4.9,5.8,78,0.00,CLR,OVC,0.00,WeatherDisplay:10.37,2013-08-16 01:05:00,
2013-08-15 21:06:00,63.5,56.5,30.02,South,181,5.1,5.8,78,0.00,CLR,OVC,0.00,WeatherDisplay:10.37,2013-08-16 01:06:00,
2013-08-15 21:07:00,63.5,56.5,30.02,South,181,4.8,5.8,78,0.00,CLR,OVC,0.00,WeatherDisplay:10.37,2013-08-16 01:07:00,
2013-08-15 21:09:00,63.4,56.4,30.02,South,181,4.1,4.6,78,0.00,CLR,OVC,0.00,WeatherDisplay:10.37,2013-08-16 01:09:00,
2013-08-15 21:10:00,63.4,56.4,30.02,South,181,4.0,5.0,78,0.00,CLR,OVC,0.00,WeatherDisplay:10.37,2013-08-16 01:10:00,
2013-08-15 21:12:00,63.3,56.3,30.02,South,181,3.9,5.0,78,0.00,CLR,OVC,0.00,WeatherDisplay:10.37,2013-08-16 01:12:00,
2013-08-15 21:14:00,63.2,56.6,30.02,South,181,4.4,5.0,79,0.00,CLR,OVC,0.00,WeatherDisplay:10.37,2013-08-16 01:14:00,
2013-08-15 21:16:00,63.1,56.5,30.03,South,181,4.8,5.8,79,0.00,CLR,OVC,0.00,WeatherDisplay:10.37,2013-08-16 01:16:00,
2013-08-15 21:17:00,63.0,56.4,30.03,South,181,4.5,5.8,79,0.00,CLR,OVC,0.00,WeatherDisplay:10.37,2013-08-16 01:17:00,
2013-08-15 21:18:00,63.0,56.4,30.02,South,181,4.3,5.0,79,0.00,CLR,OVC,0.00,WeatherDisplay:10.37,2013-08-16 01:18:00,
2013-08-15 21:20:00,62.9,55.9,30.02,South,181,4.5,5.0,78,0.00,CLR,OVC,0.00,WeatherDisplay:10.37,2013-08-16 01:20:00,
2013-08-15 21:21:00,62.9,55.9,30.02,South,181,4.1,4.6,78,0.00,CLR,OVC,0.00,WeatherDisplay:10.37,2013-08-16 01:21:00,
2013-08-15 21:22:00,62.8,56.2,30.02,South,181,3.9,4.6,79,0.00,CLR,OVC,0.00,WeatherDisplay:10.37,2013-08-16 01:22:00,
2013-08-15 21:23:00,62.8,56.2,30.03,South,181,4.3,4.6,79,0.00,CLR,OVC,0.00,WeatherDisplay:10.37,2013-08-16 01:23:00,
2013-08-15 21:25:00,62.8,56.2,30.03,South,181,4.2,4.6,79,0.00,CLR,OVC,0.00,WeatherDisplay:10.37,2013-08-16 01:25:00,
2013-08-15 21:27:00,62.7,56.1,30.03,South,181,4.0,4.6,79,0.00,CLR,OVC,0.00,WeatherDisplay:10.37,2013-08-16 01:27:00,
2013-08-15 21:28:00,62.6,56.0,30.02,South,181,3.8,4.6,79,0.00,CLR,OVC,0.00,WeatherDisplay:10.37,2013-08-16 01:28:00,
2013-08-15 21:30:00,62.6,56.0,30.02,South,181,3.6,5.0,79,0.00,CLR,OVC,0.00,WeatherDisplay:10.37,2013-08-16 01:30:00,
2013-08-15 21:34:00,62.3,56.1,30.03,South,181,3.0,5.0,80,0.00,CLR,OVC,0.00,WeatherDisplay:10.37,2013-08-16 01:34:00,
2013-08-15 21:35:00,62.2,56.3,30.03,South,181,3.9,4.6,81,0.00,CLR,OVC,0.00,WeatherDisplay:10.37,2013-08-16 01:35:00,
2013-08-15 21:39:00,61.9,56.0,30.03,South,181,4.2,5.0,81,0.00,CLR,OVC,0.00,WeatherDisplay:10.37,2013-08-16 01:39:00,
2013-08-15 21:40:00,61.8,56.2,30.03,South,181,4.0,4.6,82,0.00,CLR,OVC,0.00,WeatherDisplay:10.37,2013-08-16 01:40:00,
2013-08-15 21:41:00,61.7,56.5,30.03,South,181,0.9,3.5,83,0.00,CLR,OVC,0.00,WeatherDisplay:10.37,2013-08-16 01:41:00,
2013-08-15 21:43:00,61.5,56.3,30.03,South,181,2.0,3.5,83,0.00,CLR,OVC,0.00,WeatherDisplay:10.37,2013-08-16 01:43:00,
2013-08-15 21:44:00,61.4,56.2,30.03,South,181,3.0,3.5,83,0.00,CLR,OVC,0.00,WeatherDisplay:10.37,2013-08-16 01:44:00,
2013-08-15 21:45:00,61.4,56.2,30.03,South,181,3.3,4.0,83,0.00,CLR,OVC,0.00,WeatherDisplay:10.37,2013-08-16 01:45:00,
2013-08-15 21:47:00,61.3,56.4,30.03,South,181,3.2,3.5,84,0.00,CLR,OVC,0.00,WeatherDisplay:10.37,2013-08-16 01:47:00,
2013-08-15 21:48:00,61.2,56.3,30.03,South,181,3.0,4.0,84,0.00,CLR,OVC,0.00,WeatherDisplay:10.37,2013-08-16 01:48:00,
2013-08-15 21:49:00,61.1,55.9,30.03,South,181,4.2,4.6,83,0.00,CLR,OVC,0.00,WeatherDisplay:10.37,2013-08-16 01:49:00,
2013-08-15 21:50:00,61.1,55.9,30.03,South,181,3.7,4.6,83,0.00,CLR,OVC,0.00,WeatherDisplay:10.37,2013-08-16 01:50:00,
2013-08-15 21:52:00,61.0,56.1,30.03,South,181,0.1,3.5,84,0.00,CLR,OVC,0.00,WeatherDisplay:10.37,2013-08-16 01:52:00,
2013-08-15 21:53:00,61.0,56.5,30.03,South,181,1.1,4.0,85,0.00,CLR,OVC,0.00,WeatherDisplay:10.37,2013-08-16 01:53:00,
2013-08-15 21:55:00,60.9,56.4,30.03,South,181,4.1,4.6,85,0.00,CLR,OVC,0.00,WeatherDisplay:10.37,2013-08-16 01:55:00,
2013-08-15 21:56:00,60.9,56.0,30.04,South,181,4.0,4.6,84,0.00,CLR,OVC,0.00,WeatherDisplay:10.37,2013-08-16 01:56:00,
2013-08-15 21:57:00,60.8,56.3,30.03,South,181,4.3,4.6,85,0.00,CLR,OVC,0.00,WeatherDisplay:10.37,2013-08-16 01:57:00,
2013-08-15 21:58:00,60.7,55.8,30.03,South,181,4.6,5.0,84,0.00,CLR,OVC,0.00,WeatherDisplay:10.37,2013-08-16 01:58:00,
2013-08-15 22:00:00,60.7,55.8,30.03,South,181,4.7,4.7,84,0.00,CLR,OVC,0.00,WeatherDisplay:10.37,2013-08-16 02:00:00,
2013-08-15 22:01:00,60.7,55.8,30.03,South,179,4.9,6.9,84,0.00,CLR,OVC,0.00,WeatherDisplay:10.37,2013-08-16 02:01:00,
2013-08-15 22:02:00,60.8,55.9,30.04,South,180,4.0,6.9,84,0.00,CLR,OVC,0.00,WeatherDisplay:10.37,2013-08-16 02:02:00,
2013-08-15 22:03:00,60.8,55.9,30.03,South,179,3.9,4.6,84,0.00,CLR,OVC,0.00,WeatherDisplay:10.37,2013-08-16 02:03:00,
2013-08-15 22:04:00,60.8,55.9,30.04,South,179,3.4,4.6,84,0.00,CLR,OVC,0.00,WeatherDisplay:10.37,2013-08-16 02:04:00,
2013-08-15 22:05:00,60.8,55.9,30.03,South,179,2.7,4.0,84,0.00,CLR,OVC,0.00,WeatherDisplay:10.37,2013-08-16 02:05:00,
2013-08-15 22:06:00,60.8,56.3,30.04,South,180,2.9,4.0,85,0.00,CLR,OVC,0.00,WeatherDisplay:10.37,2013-08-16 02:06:00,
2013-08-15 22:08:00,60.8,56.3,30.04,South,179,2.1,3.5,85,0.00,CLR,OVC,0.00,WeatherDisplay:10.37,2013-08-16 02:08:00,
2013-08-15 22:09:00,60.7,56.2,30.04,South,179,0.3,3.0,85,0.00,CLR,OVC,0.00,WeatherDisplay:10.37,2013-08-16 02:09:00,
2013-08-15 22:11:00,60.7,56.2,30.04,South,180,0.9,3.5,85,0.00,CLR,OVC,0.00,WeatherDisplay:10.37,2013-08-16 02:11:00,
2013-08-15 22:13:00,60.6,56.1,30.04,South,179,1.2,3.0,85,0.00,CLR,OVC,0.00,WeatherDisplay:10.37,2013-08-16 02:13:00,
2013-08-15 22:14:00,60.5,56.0,30.04,South,180,2.1,3.5,85,0.00,CLR,OVC,0.00,WeatherDisplay:10.37,2013-08-16 02:14:00,
2013-08-15 22:16:00,60.4,55.9,30.04,South,180,2.7,3.5,85,0.00,CLR,OVC,0.00,WeatherDisplay:10.37,2013-08-16 02:16:00,
2013-08-15 22:18:00,60.3,56.1,30.04,South,180,0.0,0.0,86,0.00,CLR,OVC,0.00,WeatherDisplay:10.37,2013-08-16 02:18:00,
2013-08-15 22:19:00,60.2,56.0,30.04,South,180,0.1,1.2,86,0.00,CLR,OVC,0.00,WeatherDisplay:10.37,2013-08-16 02:19:00,
2013-08-15 22:21:00,60.1,55.9,30.04,South,180,0.0,0.0,86,0.00,CLR,OVC,0.00,WeatherDisplay:10.37,2013-08-16 02:21:00,
2013-08-15 22:23:00,59.9,55.7,30.04,South,179,0.4,2.0,86,0.00,CLR,OVC,0.00,WeatherDisplay:10.37,2013-08-16 02:23:00,
2013-08-15 22:25:00,59.8,55.9,30.04,South,179,1.4,2.3,87,0.00,CLR,OVC,0.00,WeatherDisplay:10.37,2013-08-16 02:25:00,
2013-08-15 22:27:00,59.7,55.8,30.04,South,180,1.6,2.3,87,0.00,CLR,OVC,0.00,WeatherDisplay:10.37,2013-08-16 02:27:00,
2013-08-15 22:28:00,59.5,55.6,30.04,South,179,0.1,2.3,87,0.00,CLR,OVC,0.00,WeatherDisplay:10.37,2013-08-16 02:28:00,
2013-08-15 22:30:00,59.5,55.9,30.04,South,180,0.0,1.2,88,0.00,CLR,OVC,0.00,WeatherDisplay:10.37,2013-08-16 02:30:00,
2013-08-15 22:32:00,59.3,55.7,30.05,South,179,0.0,0.0,88,0.00,CLR,OVC,0.00,WeatherDisplay:10.37,2013-08-16 02:32:00,
2013-08-15 22:33:00,59.2,55.6,30.04,South,180,0.0,0.0,88,0.00,CLR,OVC,0.00,WeatherDisplay:10.37,2013-08-16 02:33:00,
2013-08-15 22:34:00,59.2,55.6,30.04,South,179,0.0,0.0,88,0.00,CLR,OVC,0.00,WeatherDisplay:10.37,2013-08-16 02:34:00,
2013-08-15 22:35:00,59.2,55.6,30.04,South,179,0.9,3.5,88,0.00,CLR,OVC,0.00,WeatherDisplay:10.37,2013-08-16 02:35:00,
2013-08-15 22:37:00,59.1,55.5,30.05,South,180,2.6,3.5,88,0.00,CLR,OVC,0.00,WeatherDisplay:10.37,2013-08-16 02:37:00,
2013-08-15 22:39:00,59.1,55.9,30.04,South,179,2.0,3.5,89,0.00,CLR,OVC,0.00,WeatherDisplay:10.37,2013-08-16 02:39:00,
2013-08-15 22:40:00,59.1,55.9,30.04,South,179,2.1,3.5,89,0.00,CLR,OVC,0.00,WeatherDisplay:10.37,2013-08-16 02:40:00,
2013-08-15 22:41:00,59.1,55.9,30.04,South,180,1.8,3.5,89,0.00,CLR,OVC,0.00,WeatherDisplay:10.37,2013-08-16 02:41:00,
2013-08-15 22:42:00,59.1,55.9,30.04,South,180,1.9,3.5,89,0.00,CLR,OVC,0.00,WeatherDisplay:10.37,2013-08-16 02:42:00,
2013-08-15 22:43:00,59.1,55.9,30.05,South,180,1.9,3.5,89,0.00,CLR,OVC,0.00,WeatherDisplay:10.37,2013-08-16 02:43:00,
2013-08-15 22:45:00,59.0,55.8,30.04,South,180,3.4,4.0,89,0.00,CLR,OVC,0.00,WeatherDisplay:10.37,2013-08-16 02:45:00,
2013-08-15 22:46:00,59.0,55.8,30.04,South,180,2.8,4.0,89,0.00,CLR,OVC,0.00,WeatherDisplay:10.37,2013-08-16 02:46:00,
2013-08-15 22:47:00,59.0,55.8,30.05,South,179,2.9,3.5,89,0.00,CLR,OVC,0.00,WeatherDisplay:10.37,2013-08-16 02:47:00,
2013-08-15 22:48:00,58.9,55.7,30.05,South,180,2.9,3.5,89,0.00,CLR,OVC,0.00,WeatherDisplay:10.37,2013-08-16 02:48:00,
2013-08-15 22:50:00,58.9,55.7,30.05,South,180,2.9,3.5,89,0.00,CLR,OVC,0.00,WeatherDisplay:10.37,2013-08-16 02:50:00,
2013-08-15 22:52:00,58.9,55.7,30.05,South,180,2.6,3.5,89,0.00,CLR,OVC,0.00,WeatherDisplay:10.37,2013-08-16 02:52:00,
2013-08-15 22:54:00,58.9,55.7,30.05,South,179,2.7,3.5,89,0.00,CLR,OVC,0.00,WeatherDisplay:10.37,2013-08-16 02:54:00,
2013-08-15 22:55:00,58.8,55.6,30.05,South,180,2.8,3.5,89,0.00,CLR,OVC,0.00,WeatherDisplay:10.37,2013-08-16 02:55:00,
2013-08-15 22:56:00,58.8,55.6,30.05,South,179,3.0,3.5,89,0.00,CLR,OVC,0.00,WeatherDisplay:10.37,2013-08-16 02:56:00,
2013-08-15 22:57:00,58.8,55.6,30.05,South,179,2.9,3.5,89,0.00,CLR,OVC,0.00,WeatherDisplay:10.37,2013-08-16 02:57:00,
2013-08-15 22:58:00,58.8,55.6,30.05,South,179,3.0,3.5,89,0.00,CLR,OVC,0.00,WeatherDisplay:10.37,2013-08-16 02:58:00,
2013-08-15 22:59:00,58.8,55.6,30.05,South,179,2.7,3.5,89,0.00,CLR,OVC,0.00,WeatherDisplay:10.37,2013-08-16 02:59:00,
2013-08-15 23:00:00,58.8,55.6,30.05,South,179,2.5,3.5,89,0.00,CLR,OVC,0.00,WeatherDisplay:10.37,2013-08-16 03:00:00,
2013-08-15 23:01:00,58.8,55.6,30.05,South,179,2.2,3.5,89,0.00,CLR,OVC,0.00,WeatherDisplay:10.37,2013-08-16 03:01:00,
2013-08-15 23:02:00,58.8,55.6,30.05,South,179,1.8,3.5,89,0.00,CLR,OVC,0.00,WeatherDisplay:10.37,2013-08-16 03:02:00,
2013-08-15 23:03:00,58.8,55.6,30.05,South,179,1.7,3.0,89,0.00,CLR,OVC,0.00,WeatherDisplay:10.37,2013-08-16 03:03:00,
2013-08-15 23:04:00,58.7,55.5,30.05,South,180,1.6,3.5,89,0.00,CLR,OVC,0.00,WeatherDisplay:10.37,2013-08-16 03:04:00,
2013-08-15 23:05:00,58.7,55.5,30.05,South,179,0.4,3.5,89,0.00,CLR,OVC,0.00,WeatherDisplay:10.37,2013-08-16 03:05:00,
2013-08-15 23:06:00,58.7,55.5,30.05,South,179,0.6,1.2,89,0.00,CLR,OVC,0.00,WeatherDisplay:10.37,2013-08-16 03:06:00,
2013-08-15 23:07:00,58.7,55.5,30.05,South,179,0.1,1.2,89,0.00,CLR,OVC,0.00,WeatherDisplay:10.37,2013-08-16 03:07:00,
2013-08-15 23:08:00,58.7,55.5,30.05,South,179,0.5,2.0,89,0.00,CLR,OVC,0.00,WeatherDisplay:10.37,2013-08-16 03:08:00,
2013-08-15 23:09:00,58.6,55.4,30.05,South,179,0.1,2.3,89,0.00,CLR,OVC,0.00,WeatherDisplay:10.37,2013-08-16 03:09:00,
2013-08-15 23:11:00,58.6,55.4,30.05,South,179,0.0,0.0,89,0.00,CLR,OVC,0.00,WeatherDisplay:10.37,2013-08-16 03:11:00,
2013-08-15 23:12:00,58.6,55.4,30.05,South,179,0.0,0.0,89,0.00,CLR,OVC,0.00,WeatherDisplay:10.37,2013-08-16 03:12:00,
2013-08-15 23:13:00,58.5,55.3,30.05,South,179,0.0,0.0,89,0.00,CLR,OVC,0.00,WeatherDisplay:10.37,2013-08-16 03:13:00,
2013-08-15 23:14:00,58.5,55.3,30.05,South,179,1.5,2.3,89,0.00,CLR,OVC,0.00,WeatherDisplay:10.37,2013-08-16 03:14:00,
2013-08-15 23:16:00,58.4,55.2,30.05,South,179,0.2,2.3,89,0.00,CLR,OVC,0.00,WeatherDisplay:10.37,2013-08-16 03:16:00,
2013-08-15 23:17:00,58.3,55.1,30.05,South,180,0.0,0.0,89,0.00,CLR,OVC,0.00,WeatherDisplay:10.37,2013-08-16 03:17:00,
2013-08-15 23:18:00,58.2,55.3,30.05,South,179,0.0,0.0,90,0.00,CLR,OVC,0.00,WeatherDisplay:10.37,2013-08-16 03:18:00,
2013-08-15 23:20:00,58.0,55.1,30.05,South,179,0.0,0.0,90,0.00,CLR,OVC,0.00,WeatherDisplay:10.37,2013-08-16 03:20:00,
2013-08-15 23:21:00,58.0,54.8,30.05,South,180,0.0,0.0,89,0.00,CLR,OVC,0.00,WeatherDisplay:10.37,2013-08-16 03:21:00,
2013-08-15 23:22:00,58.0,54.8,30.05,South,179,0.0,0.0,89,0.00,CLR,OVC,0.00,WeatherDisplay:10.37,2013-08-16 03:22:00,
2013-08-15 23:23:00,57.9,55.0,30.05,South,179,0.0,0.0,90,0.00,CLR,OVC,0.00,WeatherDisplay:10.37,2013-08-16 03:23:00,
2013-08-15 23:25:00,57.8,54.9,30.05,South,179,0.0,0.0,90,0.00,CLR,OVC,0.00,WeatherDisplay:10.37,2013-08-16 03:25:00,
2013-08-15 23:26:00,57.7,54.8,30.05,South,180,0.0,0.0,90,0.00,CLR,OVC,0.00,WeatherDisplay:10.37,2013-08-16 03:26:00,
2013-08-15 23:27:00,57.7,54.8,30.05,South,179,0.0,0.0,90,0.00,CLR,OVC,0.00,WeatherDisplay:10.37,2013-08-16 03:27:00,
2013-08-15 23:28:00,57.6,54.7,30.05,South,179,0.0,0.0,90,0.00,CLR,OVC,0.00,WeatherDisplay:10.37,2013-08-16 03:28:00,
2013-08-15 23:29:00,57.6,54.7,30.05,South,180,0.0,0.0,90,0.00,CLR,OVC,0.00,WeatherDisplay:10.37,2013-08-16 03:29:00,
2013-08-15 23:31:00,57.5,54.6,30.05,South,180,0.0,0.0,90,0.00,CLR,OVC,0.00,WeatherDisplay:10.37,2013-08-16 03:31:00,
2013-08-15 23:32:00,57.4,54.5,30.05,South,179,0.0,0.0,90,0.00,CLR,OVC,0.00,WeatherDisplay:10.37,2013-08-16 03:32:00,
2013-08-15 23:33:00,57.4,54.8,30.05,South,179,0.7,2.3,91,0.00,CLR,OVC,0.00,WeatherDisplay:10.37,2013-08-16 03:33:00,
2013-08-15 23:34:00,57.3,54.7,30.05,South,179,2.7,3.5,91,0.00,CLR,OVC,0.00,WeatherDisplay:10.37,2013-08-16 03:34:00,
2013-08-15 23:36:00,57.2,54.6,30.05,South,179,3.4,4.6,91,0.00,CLR,OVC,0.00,WeatherDisplay:10.37,2013-08-16 03:36:00,
2013-08-15 23:37:00,57.1,54.5,30.05,South,179,1.2,3.5,91,0.00,CLR,OVC,0.00,WeatherDisplay:10.37,2013-08-16 03:37:00,
2013-08-15 23:38:00,57.1,54.5,30.06,South,179,0.5,2.3,91,0.00,CLR,OVC,0.00,WeatherDisplay:10.37,2013-08-16 03:38:00,
2013-08-15 23:39:00,57.1,54.5,30.06,South,179,1.8,3.5,91,0.00,CLR,OVC,0.00,WeatherDisplay:10.37,2013-08-16 03:39:00,
2013-08-15 23:41:00,56.8,54.2,30.06,South,179,1.4,3.5,91,0.00,CLR,OVC,0.00,WeatherDisplay:10.37,2013-08-16 03:41:00,
2013-08-15 23:43:00,56.7,54.4,30.06,South,180,3.5,4.0,92,0.00,CLR,OVC,0.00,WeatherDisplay:10.37,2013-08-16 03:43:00,
2013-08-15 23:44:00,56.6,54.4,30.06,South,179,5.0,6.0,92,0.00,CLR,OVC,0.00,WeatherDisplay:10.37,2013-08-16 03:44:00,
2013-08-15 23:46:00,56.5,54.2,30.06,South,176,4.1,5.8,92,0.00,CLR,OVC,0.00,WeatherDisplay:10.37,2013-08-16 03:46:00,
2013-08-15 23:47:00,56.5,54.2,30.06,South,175,3.7,4.6,92,0.00,CLR,OVC,0.00,WeatherDisplay:10.37,2013-08-16 03:47:00,
2013-08-15 23:48:00,56.5,54.2,30.06,South,175,2.1,3.5,92,0.00,CLR,OVC,0.00,WeatherDisplay:10.37,2013-08-16 03:48:00,
2013-08-15 23:49:00,56.5,54.5,30.06,South,176,0.9,2.3,93,0.00,CLR,OVC,0.00,WeatherDisplay:10.37,2013-08-16 03:49:00,
2013-08-15 23:51:00,56.5,54.5,30.06,South,176,1.2,3.5,93,0.00,CLR,OVC,0.00,WeatherDisplay:10.37,2013-08-16 03:51:00,
2013-08-15 23:52:00,56.5,54.5,30.06,South,176,0.5,3.5,93,0.00,CLR,OVC,0.00,WeatherDisplay:10.37,2013-08-16 03:52:00,
2013-08-15 23:53:00,56.4,54.4,30.06,South,175,0.8,1.2,93,0.00,CLR,OVC,0.00,WeatherDisplay:10.37,2013-08-16 03:53:00,
2013-08-15 23:54:00,56.4,54.4,30.06,South,175,0.0,2.3,93,0.00,CLR,OVC,0.00,WeatherDisplay:10.37,2013-08-16 03:54:00,
2013-08-15 23:57:00,56.4,54.4,30.06,South,176,0.6,1.2,93,0.00,CLR,OVC,0.00,WeatherDisplay:10.37,2013-08-16 03:57:00,
2013-08-15 23:58:00,56.4,54.4,30.06,South,176,0.0,1.2,93,0.00,CLR,OVC,0.00,WeatherDisplay:10.37,2013-08-16 03:58:00,